W4HSV Weather Reports


time (UTC)temp
F
wind
direction
speed
knots
gust
knots
rain 1hr
in
rain 24hr
in
rain mn
in
humidity
%
barometer
mb
20260508094828 49 322 0.0 0.0 0.00 0.00 0.00 89 1015.3
20260508094736 49 322 0.0 0.0 0.00 0.00 0.00 89 1015.3
20260508094622 49 322 0.0 0.0 0.00 0.00 0.00 89 1015.3
20260508094529 49 322 0.0 0.0 0.00 0.00 0.00 89 1015.3
20260508094437 49 322 0.0 0.0 0.00 0.01 0.00 88 1015.3
20260508094328 49 322 0.0 0.0 0.00 0.01 0.00 88 1015.3
20260508094216 49 322 0.0 0.0 0.00 0.01 0.00 88 1015.3
20260508094122 49 322 0.0 0.9 0.00 0.01 0.00 88 1015.3
20260508094030 49 322 0.0 0.9 0.00 0.01 0.00 88 1015.3
20260508093916 49 322 0.0 0.9 0.00 0.01 0.00 88 1015.3
20260508093822 49 322 0.0 0.9 0.00 0.01 0.00 88 1015.3
20260508093734 49 322 0.0 0.9 0.00 0.01 0.00 88 1015.2
20260508093641 49 322 0.0 0.9 0.00 0.01 0.00 88 1015.2
20260508093612 49 322 0.0 0.9 0.00 0.01 0.00 88 1015.2
20260508093325 49 322 0.0 0.9 0.00 0.01 0.00 88 1015.2
20260508093213 49 340 0.0 0.0 0.00 0.01 0.00 88 1015.1
20260508093125 49 340 0.0 1.7 0.00 0.01 0.00 88 1015.1
20260508093032 49 340 0.0 1.7 0.00 0.01 0.00 88 1015.1
20260508092919 49 340 0.0 2.6 0.00 0.01 0.00 88 1015.1
20260508092826 49 340 0.0 2.6 0.00 0.01 0.00 88 1015.1
20260508092713 50 340 0.0 2.6 0.00 0.01 0.00 88 1015.2
20260508092621 49 340 0.0 2.6 0.00 0.01 0.00 88 1015.2
20260508092512 49 340 0.0 2.6 0.00 0.01 0.00 88 1015.2
20260508092420 49 340 0.0 2.6 0.00 0.01 0.00 88 1015.2
20260508092327 50 340 0.9 2.6 0.00 0.01 0.00 88 1015.1
20260508092215 50 340 1.7 2.6 0.00 0.01 0.00 88 1015.1
20260508092122 50 337 1.7 2.6 0.00 0.01 0.00 88 1015.1
20260508092057 50 331 1.7 2.6 0.00 0.01 0.00 88 1015.2
20260508091830 49 327 1.7 2.6 0.00 0.01 0.00 88 1015.2
20260508091717 49 333 1.7 2.6 0.00 0.01 0.00 88 1015.2
20260508091645 50 333 1.7 2.6 0.00 0.01 0.00 88 1015.2
20260508091512 50 332 1.7 2.6 0.00 0.01 0.00 88 1015.1
20260508091443 50 341 0.9 2.6 0.00 0.01 0.00 88 1015.1
20260508091350 50 336 0.9 2.6 0.00 0.01 0.00 88 1015.1
20260508091216 50 338 0.9 2.6 0.00 0.01 0.00 88 1015.1
20260508091123 50 339 0.9 2.6 0.00 0.01 0.00 88 1015.1
20260508091011 50 333 1.7 2.6 0.00 0.01 0.00 87 1015.1
20260508090918 50 333 1.7 2.6 0.00 0.01 0.00 87 1015.1
20260508090829 50 346 1.7 2.6 0.00 0.01 0.00 87 1015.1
20260508090716 50 355 0.9 2.6 0.00 0.01 0.00 87 1015.1
20260508090622 50 340 0.9 2.6 0.00 0.01 0.00 87 1015.1
20260508090553 50 340 0.9 3.5 0.00 0.01 0.00 87 1015.1
20260508090346 50 340 0.9 3.5 0.00 0.01 0.00 87 1015.1
20260508090218 50 340 1.7 3.5 0.00 0.01 0.00 87 1015.1
20260508090126 50 5 1.7 3.5 0.00 0.01 0.00 87 1015.1
20260508090013 50 348 1.7 3.5 0.00 0.01 0.00 87 1015.1
20260508085921 50 336 1.7 3.5 0.00 0.01 0.00 87 1015.1
20260508085828 50 336 2.6 3.5 0.00 0.01 0.00 87 1015.1
20260508085720 50 341 2.6 3.5 0.00 0.01 0.00 87 1015.0
20260508085628 50 339 1.7 3.5 0.00 0.01 0.00 87 1015.2
20260508085515 50 355 1.7 3.5 0.00 0.01 0.00 87 1015.1
20260508085422 50 344 1.7 3.5 0.00 0.01 0.00 87 1015.1
20260508085330 50 344 1.7 3.5 0.00 0.01 0.00 87 1015.1
20260508085218 50 347 2.6 3.5 0.00 0.01 0.00 87 1015.1
20260508085150 50 345 2.6 3.5 0.00 0.01 0.00 87 1015.1
20260508085100 50 348 2.6 4.3 0.00 0.01 0.00 87 1015.0
20260508084814 50 346 2.6 4.3 0.00 0.01 0.00 87 1015.0
20260508084721 50 346 2.6 4.3 0.00 0.01 0.00 87 1015.0
20260508084613 50 344 2.6 4.3 0.00 0.01 0.00 87 1015.0
20260508084519 50 342 2.6 4.3 0.00 0.01 0.00 87 1015.0
20260508084445 51 340 2.6 4.3 0.00 0.01 0.00 87 1015.0
20260508084312 51 338 2.6 4.3 0.00 0.26 0.00 87 1015.0
20260508084240 51 340 2.6 3.5 0.00 0.26 0.00 87 1015.1
20260508084128 51 336 2.6 3.5 0.00 0.26 0.00 87 1015.1
20260508084015 51 348 2.6 3.5 0.00 0.26 0.00 87 1015.0
20260508083929 51 331 2.6 3.5 0.00 0.26 0.00 87 1015.0
20260508083815 51 348 2.6 3.5 0.00 0.26 0.00 87 1015.0
20260508083722 51 349 2.6 3.5 0.00 0.26 0.00 87 1015.0
20260508083630 51 342 2.6 3.5 0.00 0.26 0.00 88 1015.0
20260508083601 51 346 2.6 3.5 0.00 0.26 0.00 88 1015.0
20260508083318 51 331 2.6 3.5 0.00 0.26 0.00 89 1014.9
20260508083225 51 344 2.6 3.5 0.00 0.26 0.00 88 1014.9
20260508083114 51 348 2.6 3.5 0.00 0.26 0.00 89 1015.0
20260508083021 51 340 2.6 3.5 0.00 0.26 0.00 89 1015.0
20260508082946 51 355 2.6 3.5 0.00 0.26 0.00 89 1014.9
20260508082818 51 355 1.7 3.5 0.00 0.26 0.00 89 1014.9
20260508082725 51 360 1.7 3.5 0.00 0.26 0.00 88 1014.9
20260508082632 51 355 1.7 3.5 0.00 0.26 0.00 89 1015.0
20260508082519 51 5 1.7 3.5 0.00 0.26 0.00 89 1015.0
20260508082427 51 355 1.7 3.5 0.00 0.26 0.00 88 1014.9
20260508082315 51 355 1.7 4.3 0.00 0.26 0.00 88 1014.9
20260508082226 51 335 1.7 4.3 0.00 0.26 0.00 88 1014.9
20260508082114 51 15 1.7 4.3 0.00 0.26 0.00 87 1014.9
20260508082045 51 360 2.6 4.3 0.00 0.26 0.00 87 1014.9
20260508081818 51 350 2.6 4.3 0.00 0.26 0.00 85 1014.9
20260508081725 51 346 2.6 4.3 0.00 0.26 0.00 85 1014.9
20260508081616 51 344 2.6 4.3 0.00 0.26 0.00 85 1015.0
20260508081525 51 346 2.6 4.3 0.00 0.26 0.00 85 1015.0
20260508081412 51 339 2.6 4.3 0.00 0.26 0.00 85 1015.0
20260508081320 51 355 2.6 4.3 0.00 0.26 0.00 85 1015.0
20260508081227 51 343 2.6 4.3 0.00 0.26 0.00 85 1014.9
20260508081117 51 345 2.6 4.3 0.00 0.26 0.00 85 1014.9
20260508081025 51 346 1.7 4.3 0.00 0.26 0.00 85 1014.9
20260508080912 51 344 1.7 4.3 0.00 0.26 0.00 85 1014.9
20260508080820 51 351 2.6 4.3 0.00 0.26 0.00 85 1014.9
20260508080727 51 355 2.6 4.3 0.00 0.26 0.00 85 1014.8
20260508080619 51 355 2.6 4.3 0.00 0.26 0.00 85 1014.8
20260508080550 51 355 2.6 4.3 0.00 0.26 0.00 85 1014.8
20260508080323 51 342 2.6 3.5 0.00 0.26 0.00 85 1014.9
20260508080211 51 346 2.6 3.5 0.00 0.26 0.00 85 1014.9
20260508080118 51 346 1.7 3.5 0.00 0.26 0.00 85 1014.9
20260508080029 51 355 1.7 3.5 0.00 0.26 0.00 85 1014.9
20260508075916 51 355 2.6 3.5 0.00 0.26 0.00 85 1014.8
20260508075843 51 351 1.7 3.5 0.00 0.26 0.00 85 1014.8
20260508075729 51 12 2.6 3.5 0.00 0.26 0.00 85 1014.8
20260508075616 52 5 2.6 5.2 0.00 0.26 0.00 85 1014.9
20260508075523 52 5 1.7 5.2 0.00 0.26 0.00 85 1014.9
20260508075436 52 5 2.6 5.2 0.00 0.26 0.00 84 1014.8
20260508075323 52 355 2.6 5.2 0.00 0.26 0.00 84 1014.8
20260508075230 52 355 2.6 5.2 0.00 0.26 0.00 84 1014.8
20260508075137 52 355 2.6 5.2 0.00 0.26 0.00 84 1014.8
20260508075108 52 355 2.6 5.2 0.00 0.26 0.00 84 1014.8
20260508074845 52 5 3.5 5.2 0.00 0.26 0.00 84 1014.7
20260508074711 52 5 2.6 5.2 0.00 0.26 0.00 84 1014.6
20260508074620 52 18 2.6 5.2 0.00 0.26 0.00 84 1014.6
20260508074527 52 27 3.5 5.2 0.00 0.26 0.00 84 1014.8
20260508074414 52 11 3.5 5.2 0.00 0.31 0.00 84 1014.8
20260508074322 52 5 3.5 5.2 0.00 0.31 0.00 84 1014.8
20260508074234 52 15 3.5 5.2 0.00 0.31 0.00 84 1015.0
20260508074121 52 347 3.5 5.2 0.00 0.31 0.00 84 1015.0
20260508074029 52 5 3.5 5.2 0.00 0.31 0.00 84 1015.0
20260508073936 52 351 3.5 5.2 0.00 0.31 0.00 84 1015.0
20260508073824 52 345 3.5 5.2 0.00 0.31 0.00 84 1015.0
20260508073712 52 355 3.5 5.2 0.00 0.31 0.00 84 1015.0
20260508073624 52 351 3.5 5.2 0.00 0.31 0.00 84 1015.0
20260508073554 52 341 3.5 5.2 0.00 0.31 0.00 84 1015.1
20260508073326 52 349 3.5 5.2 0.00 0.31 0.00 84 1015.0
20260508073214 52 345 3.5 4.3 0.00 0.31 0.00 84 1015.0
20260508073126 52 355 3.5 4.3 0.00 0.31 0.00 83 1015.0
20260508073033 52 339 2.6 4.3 0.00 0.31 0.00 83 1014.9
20260508072920 52 344 2.6 4.3 0.00 0.31 0.00 83 1014.9
20260508072827 52 355 2.6 4.3 0.00 0.31 0.00 84 1014.9
20260508072716 52 355 3.5 4.3 0.00 0.31 0.00 84 1014.9
20260508072624 52 335 3.5 4.3 0.00 0.31 0.00 84 1014.9
20260508072515 52 336 3.5 4.3 0.00 0.31 0.00 84 1015.0
20260508072423 52 335 3.5 4.3 0.00 0.31 0.00 84 1015.0
20260508072330 52 355 3.5 4.3 0.00 0.31 0.00 84 1015.0
20260508072218 52 347 2.6 4.3 0.00 0.31 0.00 84 1015.0
20260508072124 52 331 2.6 4.3 0.00 0.31 0.00 84 1015.0
20260508072058 52 344 2.6 3.5 0.00 0.31 0.00 84 1015.0
20260508071812 52 343 2.6 3.5 0.00 0.31 0.00 84 1015.0
20260508071721 52 344 1.7 3.5 0.00 0.31 0.00 84 1015.0
20260508071627 52 348 1.7 3.5 0.00 0.31 0.00 84 1015.0
20260508071515 52 360 1.7 3.5 0.00 0.31 0.00 84 1014.9
20260508071428 52 333 1.7 3.5 0.00 0.31 0.00 84 1014.9
20260508071315 52 350 1.7 2.6 0.00 0.31 0.00 84 1015.0
20260508071243 52 5 2.6 2.6 0.00 0.31 0.00 84 1015.0
20260508071150 52 9 1.7 2.6 0.00 0.31 0.00 84 1015.0
20260508071037 52 348 1.7 2.6 0.00 0.31 0.00 84 1015.0
20260508070923 52 355 1.7 2.6 0.00 0.31 0.00 84 1015.0
20260508070814 52 341 1.7 2.6 0.00 0.31 0.00 84 1015.1
20260508070722 52 336 1.7 2.6 0.00 0.31 0.00 84 1015.1
20260508070630 52 338 1.7 2.6 0.00 0.31 0.00 84 1015.0
20260508070559 52 346 1.7 2.6 0.00 0.31 0.00 84 1015.1
20260508070313 52 348 1.7 2.6 0.00 0.31 0.00 83 1015.2
20260508070225 52 342 1.7 2.6 0.00 0.31 0.00 83 1015.2
20260508070133 52 344 1.7 2.6 0.00 0.31 0.00 83 1015.2
20260508070020 52 348 1.7 2.6 0.00 0.31 0.00 83 1015.2
20260508065927 52 339 1.7 2.6 0.00 0.31 0.00 83 1015.2
20260508065835 52 348 1.7 2.6 0.00 0.31 0.00 83 1015.2
20260508065721 52 346 1.7 2.6 0.00 0.31 0.00 83 1015.2
20260508065612 52 346 1.7 2.6 0.00 0.31 0.00 83 1015.2
20260508065519 52 342 1.7 2.6 0.00 0.31 0.00 83 1015.2
20260508065427 52 355 1.7 2.6 0.00 0.31 0.00 83 1015.2
20260508065314 52 355 1.7 2.6 0.00 0.31 0.00 83 1015.2
20260508065221 52 348 1.7 2.6 0.00 0.31 0.00 83 1015.2
20260508065128 52 355 0.9 2.6 0.00 0.31 0.00 84 1015.1
20260508065103 52 346 0.9 2.6 0.00 0.31 0.00 83 1015.1
20260508064817 52 345 1.7 3.5 0.00 0.31 0.00 84 1015.1
20260508064723 52 351 1.7 3.5 0.00 0.31 0.00 84 1015.1
20260508064611 52 355 1.7 3.5 0.00 0.31 0.00 84 1015.2
20260508064542 52 355 1.7 3.5 0.00 0.31 0.00 84 1015.2
20260508064326 52 5 1.7 3.5 0.00 0.31 0.00 84 1015.2
20260508064213 52 9 1.7 3.5 0.00 0.31 0.00 84 1015.2
20260508064121 52 13 1.7 3.5 0.00 0.31 0.00 84 1015.2
20260508064028 52 9 1.7 3.5 0.00 0.31 0.00 84 1015.1
20260508063919 52 5 1.7 3.5 0.00 0.31 0.00 84 1015.2
20260508063827 52 9 1.7 3.5 0.00 0.31 0.00 84 1015.1
20260508063713 52 355 1.7 2.6 0.00 0.31 0.00 84 1015.2
20260508063621 52 13 1.7 2.6 0.00 0.31 0.00 84 1015.2
20260508063552 52 14 1.7 2.6 0.00 0.31 0.00 84 1015.3
20260508063330 52 360 1.7 2.6 0.00 0.31 0.00 83 1015.3
20260508063218 53 5 1.7 2.6 0.00 0.31 0.00 83 1015.2
20260508063125 53 5 1.7 2.6 0.00 0.31 0.00 83 1015.2
20260508063012 53 360 0.9 2.6 0.00 0.31 0.00 83 1015.3
20260508062919 53 24 0.9 2.6 0.00 0.31 0.00 83 1015.4
20260508062811 53 30 0.9 3.5 0.00 0.31 0.00 82 1015.4
20260508062718 53 22 0.9 3.5 0.00 0.31 0.00 83 1015.3
20260508062626 53 14 0.9 3.5 0.00 0.31 0.00 82 1015.3
20260508062514 53 15 0.9 3.5 0.00 0.31 0.00 82 1015.4
20260508062421 53 19 0.9 3.5 0.00 0.31 0.00 82 1015.4
20260508062313 53 5 1.7 3.5 0.00 0.31 0.00 82 1015.4
20260508062221 53 5 1.7 3.5 0.00 0.31 0.00 82 1015.4
20260508062129 53 5 1.7 3.5 0.00 0.31 0.00 82 1015.5
20260508062059 53 14 1.7 3.5 0.00 0.31 0.00 82 1015.5
20260508061813 53 355 1.7 2.6 0.00 0.31 0.00 82 1015.6
20260508061744 53 355 1.7 2.6 0.00 0.31 0.00 82 1015.6
20260508061611 53 5 1.7 2.6 0.00 0.31 0.00 82 1015.5
20260508061518 53 360 1.7 2.6 0.00 0.31 0.00 82 1015.5
20260508061426 53 5 0.9 2.6 0.00 0.31 0.00 82 1015.5
20260508061313 53 355 0.9 2.6 0.00 0.31 0.00 82 1015.5
20260508061220 53 355 1.7 2.6 0.00 0.31 0.00 82 1015.5
20260508061131 53 346 0.9 2.6 0.00 0.31 0.00 82 1015.5
20260508061017 53 355 0.9 2.6 0.00 0.31 0.00 82 1015.5
20260508060925 53 355 1.7 2.6 0.00 0.31 0.00 82 1015.5
20260508060811 53 351 0.9 2.6 0.00 0.31 0.00 82 1015.5
20260508060739 53 5 0.9 2.6 0.00 0.31 0.00 82 1015.5
20260508060559 53 5 0.9 2.6 0.00 0.31 0.00 82 1015.5
20260508060311 53 5 0.9 2.6 0.00 0.31 0.00 82 1015.5
20260508060219 53 355 1.7 2.6 0.00 0.31 0.00 83 1015.5
20260508060128 53 355 1.7 2.6 0.00 0.31 0.00 83 1015.5
20260508060018 53 360 1.7 2.6 0.00 0.31 0.00 83 1015.6
20260508055926 53 335 1.7 2.6 0.00 0.31 0.00 83 1015.6
20260508055813 53 355 1.7 2.6 0.00 0.31 0.00 83 1015.6
20260508055720 53 341 1.7 2.6 0.00 0.31 0.00 83 1015.6
20260508055629 53 346 1.7 2.6 0.00 0.31 0.00 83 1015.6
20260508055521 53 347 0.9 2.6 0.00 0.31 0.00 83 1015.5
20260508055427 53 343 0.9 2.6 0.00 0.31 0.00 83 1015.5
20260508055314 53 355 0.9 2.6 0.00 0.31 0.00 83 1015.5
20260508055243 53 355 0.9 2.6 0.00 0.31 0.00 83 1015.5
20260508055149 53 5 0.9 2.6 0.00 0.31 0.00 83 1015.4
20260508055119 53 5 0.9 2.6 0.00 0.31 0.00 82 1015.5
20260508054815 53 355 0.9 2.6 0.00 0.31 0.00 82 1015.5
20260508054743 53 355 0.9 2.6 0.00 0.31 0.00 82 1015.5
20260508054629 53 360 1.7 2.6 0.00 0.31 0.00 82 1015.6
20260508054516 53 360 1.7 2.6 0.00 0.31 0.00 82 1015.6
20260508054423 53 355 1.7 2.6 0.00 0.31 0.00 83 1015.6
20260508054312 54 355 1.7 2.6 0.00 0.31 0.31 82 1015.7
20260508054221 54 355 1.7 2.6 0.00 0.31 0.31 83 1015.7
20260508054128 54 355 1.7 2.6 0.00 0.31 0.31 83 1015.7
20260508054016 54 333 0.9 2.6 0.00 0.31 0.31 83 1015.7
20260508053923 54 345 1.7 3.5 0.00 0.31 0.31 83 1015.7
20260508053811 54 330 1.7 3.5 0.00 0.31 0.31 83 1015.8
20260508053723 54 342 1.7 3.5 0.00 0.31 0.31 83 1015.8
20260508053630 54 335 1.7 3.5 0.00 0.31 0.31 83 1015.7
20260508053601 54 336 1.7 3.5 0.00 0.31 0.31 83 1015.8
20260508053314 54 332 1.7 3.5 0.00 0.31 0.31 83 1015.6
20260508053243 54 344 1.7 3.5 0.00 0.31 0.31 83 1015.7
20260508053113 54 351 1.7 3.5 0.00 0.31 0.31 83 1015.6
20260508053021 54 348 1.7 3.5 0.00 0.31 0.31 83 1015.6
20260508052928 54 323 1.7 3.5 0.00 0.31 0.31 83 1015.6
20260508052816 54 333 1.7 2.6 0.00 0.31 0.31 83 1015.7
20260508052723 54 345 1.7 2.6 0.00 0.31 0.31 83 1015.7
20260508052614 54 338 1.7 2.6 0.00 0.31 0.31 83 1015.7
20260508052522 54 350 0.9 2.6 0.00 0.31 0.31 83 1015.7
20260508052430 54 340 0.9 2.6 0.00 0.31 0.31 83 1015.6
20260508052318 54 336 1.7 2.6 0.00 0.31 0.31 83 1015.6
20260508052225 54 355 1.7 3.5 0.00 0.31 0.31 83 1015.6
20260508052131 54 348 0.9 3.5 0.00 0.31 0.31 84 1015.6
20260508052105 54 347 0.9 3.5 0.00 0.31 0.31 84 1015.5
20260508051817 54 344 0.9 3.5 0.00 0.31 0.31 84 1015.5
20260508051723 54 342 0.9 3.5 0.00 0.31 0.31 84 1015.5
20260508051630 54 343 1.7 3.5 0.00 0.31 0.31 84 1015.5
20260508051523 54 348 1.7 3.5 0.00 0.31 0.31 85 1015.5
20260508051430 54 355 1.7 3.5 0.00 0.31 0.31 85 1015.6
20260508051318 54 355 1.7 3.5 0.00 0.31 0.31 85 1015.6
20260508051224 54 338 1.7 2.6 0.00 0.31 0.31 85 1015.6
20260508051131 54 355 0.9 2.6 0.00 0.31 0.31 86 1015.8
20260508051019 54 331 0.9 2.6 0.00 0.31 0.31 86 1015.6
20260508050930 54 335 0.0 2.6 0.00 0.31 0.31 86 1015.6
20260508050816 54 317 0.0 2.6 0.00 0.31 0.31 86 1015.7
20260508050744 54 319 0.9 2.6 0.00 0.31 0.31 86 1015.7
20260508050652 54 309 0.9 2.6 0.00 0.31 0.31 86 1015.6
20260508050601 54 309 1.7 2.6 0.00 0.31 0.31 86 1015.8
20260508050317 54 333 1.7 2.6 0.00 0.31 0.31 85 1015.6
20260508050225 54 332 0.9 2.6 0.00 0.31 0.31 86 1015.6
20260508050112 54 342 0.9 2.6 0.00 0.31 0.31 86 1015.5
20260508050019 54 340 1.7 2.6 0.00 0.31 0.31 86 1015.5
20260508045927 54 326 1.7 2.6 0.00 0.31 0.31 86 1015.5
20260508045835 54 343 0.9 2.6 0.00 0.31 0.31 86 1015.5
20260508045725 54 339 1.7 2.6 0.00 0.31 0.31 86 1015.5
20260508045613 54 346 1.7 2.6 0.00 0.31 0.31 86 1015.6
20260508045522 54 330 1.7 2.6 0.00 0.31 0.31 86 1015.6
20260508045449 54 331 1.7 2.6 0.00 0.31 0.31 86 1015.6
20260508045315 54 338 0.9 1.7 0.00 0.31 0.31 86 1015.5
20260508045222 54 337 0.9 1.7 0.00 0.31 0.31 86 1015.5
20260508045134 54 335 0.0 1.7 0.00 0.31 0.31 86 1015.5
20260508045104 54 341 0.9 1.7 0.00 0.31 0.31 86 1015.5
20260508044817 54 346 0.9 1.7 0.00 0.31 0.31 86 1015.4
20260508044724 54 346 0.9 2.6 0.00 0.31 0.31 86 1015.4
20260508044616 54 347 0.9 2.6 0.00 0.31 0.31 87 1015.4
20260508044522 54 344 0.9 2.6 0.00 0.31 0.31 87 1015.4
20260508044429 54 347 0.9 2.6 0.00 0.31 0.31 87 1015.4
20260508044316 54 346 0.9 2.6 0.00 0.31 0.31 87 1015.4
20260508044244 54 340 0.9 2.6 0.00 0.31 0.31 87 1015.4
20260508044131 54 340 0.9 2.6 0.00 0.31 0.31 87 1015.4
20260508044022 54 341 0.9 2.6 0.00 0.31 0.31 87 1015.3
20260508043930 54 342 0.9 2.6 0.00 0.31 0.31 87 1015.5
20260508043818 54 346 0.9 1.7 0.00 0.31 0.31 87 1015.4
20260508043725 54 355 0.0 1.7 0.00 0.31 0.31 87 1015.4
20260508043611 54 355 0.0 1.7 0.00 0.31 0.31 87 1015.3
20260508043545 54 360 0.0 1.7 0.00 0.31 0.31 86 1015.3
20260508043319 54 360 0.9 1.7 0.00 0.31 0.31 86 1015.3
20260508043227 54 360 0.9 1.7 0.00 0.31 0.31 86 1015.3
20260508043114 54 360 0.9 1.7 0.00 0.31 0.31 86 1015.3
20260508043041 54 360 0.9 2.6 0.00 0.31 0.31 86 1015.3
20260508042911 54 360 0.9 2.6 0.00 0.31 0.31 86 1015.3
20260508042819 54 360 0.9 2.6 0.00 0.31 0.31 86 1015.3
20260508042725 54 360 0.9 2.6 0.00 0.31 0.31 86 1015.3
20260508042612 54 360 0.9 2.6 0.00 0.31 0.31 86 1015.3
20260508042520 54 360 0.9 2.6 0.00 0.31 0.31 86 1015.4
20260508042447 54 360 0.9 2.6 0.00 0.31 0.31 86 1015.4
20260508042318 54 360 0.9 2.6 0.00 0.31 0.31 86 1015.4
20260508042225 54 360 0.9 2.6 0.00 0.31 0.31 86 1015.4
20260508042133 54 360 0.9 2.6 0.00 0.31 0.31 87 1015.3
20260508042104 54 360 0.9 2.6 0.00 0.31 0.31 87 1015.4
20260508041821 54 344 0.0 0.0 0.00 0.31 0.31 87 1015.3
20260508041750 54 344 0.0 0.0 0.00 0.31 0.31 86 1015.3
20260508041618 54 344 0.0 0.0 0.00 0.31 0.31 86 1015.4
20260508041544 54 344 0.0 0.0 0.00 0.31 0.31 86 1015.4
20260508041411 54 344 0.0 0.0 0.00 0.31 0.31 86 1015.5
20260508041339 54 344 0.0 0.0 0.00 0.31 0.31 86 1015.5
20260508041226 54 344 0.0 0.0 0.00 0.31 0.31 86 1015.5
20260508041117 54 344 0.0 0.0 0.00 0.31 0.31 86 1015.5
20260508041025 54 344 0.0 0.0 0.00 0.31 0.31 86 1015.5
20260508040913 54 344 0.0 0.0 0.00 0.31 0.31 86 1015.5
20260508040821 54 344 0.0 0.9 0.00 0.31 0.31 86 1015.5
20260508040729 54 344 0.0 0.9 0.00 0.31 0.31 86 1015.6
20260508040621 54 343 0.0 0.9 0.00 0.31 0.31 86 1015.5
20260508040551 54 343 0.0 0.9 0.00 0.31 0.31 86 1015.5
20260508040325 54 333 0.0 0.9 0.00 0.31 0.31 86 1015.4
20260508040211 55 329 0.0 0.9 0.00 0.31 0.31 86 1015.4
20260508040120 55 329 0.0 0.9 0.00 0.31 0.31 86 1015.5
20260508040030 55 329 0.0 0.9 0.00 0.31 0.31 86 1015.5
20260508035916 55 329 0.0 1.7 0.00 0.31 0.31 86 1015.4
20260508035844 55 321 0.0 1.7 0.00 0.31 0.31 87 1015.4
20260508035730 55 311 0.0 1.7 0.00 0.31 0.31 86 1015.5
20260508035617 55 305 0.0 1.7 0.00 0.31 0.31 87 1015.5
20260508035546 55 305 0.0 1.7 0.00 0.31 0.31 87 1015.5
20260508035437 55 299 0.0 1.7 0.00 0.31 0.31 87 1015.5
20260508035324 55 300 0.0 1.7 0.00 0.31 0.31 86 1015.5
20260508035252 55 319 0.0 1.7 0.00 0.31 0.31 86 1015.5
20260508035138 55 319 0.0 1.7 0.00 0.31 0.31 86 1015.4
20260508035046 55 319 0.0 0.9 0.00 0.31 0.31 86 1015.5
20260508034839 55 316 0.0 0.9 0.00 0.31 0.31 86 1015.4
20260508034745 55 316 0.0 0.9 0.00 0.31 0.31 86 1015.4
20260508034616 55 294 0.0 0.9 0.00 0.31 0.31 86 1015.4
20260508034523 55 294 0.0 0.9 0.00 0.31 0.31 86 1015.4
20260508034450 55 294 0.0 0.9 0.00 0.31 0.31 86 1015.4
20260508034316 55 294 0.0 0.9 0.00 0.35 0.31 85 1015.4
20260508034223 55 294 0.0 0.9 0.00 0.35 0.31 85 1015.4
20260508034114 55 294 0.0 0.9 0.00 0.35 0.31 85 1015.4
20260508034022 55 294 0.0 0.9 0.00 0.35 0.31 85 1015.4
20260508033951 55 294 0.0 0.0 0.00 0.35 0.31 85 1015.4
20260508033818 55 294 0.0 0.0 0.00 0.35 0.31 85 1015.3
20260508033725 55 294 0.0 0.0 0.00 0.35 0.31 85 1015.3
20260508033613 56 294 0.0 1.7 0.00 0.35 0.31 85 1015.4
20260508033548 56 294 0.0 1.7 0.00 0.35 0.31 85 1015.4
20260508033342 56 294 0.0 1.7 0.00 0.35 0.31 84 1015.5
20260508033228 56 294 0.0 1.7 0.00 0.35 0.31 84 1015.5
20260508033116 56 294 0.0 1.7 0.00 0.35 0.31 84 1015.5
20260508033025 56 294 0.0 1.7 0.00 0.35 0.31 84 1015.5
20260508032916 56 294 0.9 1.7 0.00 0.35 0.31 84 1015.5
20260508032824 56 294 0.9 2.6 0.00 0.35 0.31 83 1015.5
20260508032712 56 294 0.9 2.6 0.00 0.35 0.31 83 1015.5
20260508032640 56 294 0.9 2.6 0.00 0.35 0.31 83 1015.3
20260508032527 56 294 0.9 2.6 0.00 0.35 0.31 83 1015.3
20260508032415 56 299 0.0 2.6 0.00 0.35 0.31 83 1015.3
20260508032346 56 325 0.0 2.6 0.00 0.35 0.31 83 1015.3
20260508032213 56 327 0.9 2.6 0.00 0.35 0.31 83 1015.4
20260508032121 56 331 0.9 2.6 0.00 0.35 0.31 83 1015.3
20260508032052 56 331 1.7 2.6 0.00 0.35 0.31 82 1015.3
20260508031825 56 348 1.7 2.6 0.00 0.35 0.31 82 1015.4
20260508031718 56 346 1.7 1.7 0.00 0.35 0.31 82 1015.4
20260508031625 56 346 0.9 1.7 0.00 0.35 0.31 82 1015.4
20260508031534 57 346 0.9 2.6 0.00 0.35 0.31 82 1015.4
20260508031440 56 346 0.9 2.6 0.00 0.35 0.31 81 1015.5
20260508031326 57 346 0.9 2.6 0.00 0.35 0.31 81 1015.5
20260508031213 57 346 0.9 2.6 0.00 0.35 0.31 81 1015.4
20260508031125 57 347 1.7 2.6 0.00 0.35 0.31 81 1015.4
20260508031013 57 347 0.9 2.6 0.00 0.35 0.31 81 1015.2
20260508030942 57 346 1.7 2.6 0.00 0.35 0.31 81 1015.3
20260508030848 57 346 1.7 2.6 0.00 0.35 0.31 81 1015.3
20260508030713 57 340 1.7 2.6 0.00 0.35 0.31 81 1015.2
20260508030622 57 339 1.7 2.6 0.00 0.35 0.31 81 1015.2
20260508030555 57 340 1.7 2.6 0.00 0.35 0.31 81 1015.2
20260508030329 57 331 0.9 2.6 0.00 0.35 0.31 81 1015.3
20260508030218 57 299 0.0 0.0 0.00 0.35 0.31 80 1015.3
20260508030125 57 299 0.0 0.0 0.00 0.35 0.31 80 1015.3
20260508030017 57 299 0.0 0.0 0.00 0.35 0.31 80 1015.2
20260508025924 57 299 0.0 0.0 0.00 0.35 0.31 80 1015.2
20260508025813 57 299 0.0 0.0 0.00 0.35 0.31 80 1015.3
20260508025721 57 299 0.0 0.0 0.00 0.35 0.31 80 1015.3
20260508025629 57 299 0.0 0.0 0.00 0.35 0.31 80 1015.3
20260508025516 57 299 0.0 0.0 0.00 0.35 0.31 80 1015.2
20260508025427 57 299 0.0 0.0 0.00 0.35 0.31 80 1015.2
20260508025315 58 299 0.0 1.7 0.00 0.35 0.31 80 1015.2
20260508025243 58 299 0.0 1.7 0.00 0.35 0.31 80 1015.2
20260508025130 58 299 0.0 1.7 0.00 0.35 0.31 80 1015.2
20260508025045 58 299 0.0 1.7 0.00 0.35 0.31 80 1015.2
20260508024818 58 299 0.0 1.7 0.00 0.35 0.31 79 1015.1
20260508024724 58 299 0.0 1.7 0.00 0.35 0.31 79 1015.1
20260508024612 58 299 0.0 1.7 0.00 0.35 0.31 79 1015.1
20260508024520 58 299 0.9 1.7 0.00 0.35 0.31 78 1015.1
20260508024429 58 299 0.9 1.7 0.00 0.35 0.31 78 1015.1
20260508024321 58 333 1.7 1.7 0.00 0.39 0.31 77 1015.1
20260508024228 58 333 0.9 1.7 0.00 0.39 0.31 77 1015.1
20260508024116 58 333 0.9 1.7 0.00 0.39 0.31 77 1015.0
20260508024024 58 333 1.7 1.7 0.00 0.39 0.31 77 1015.0
20260508023913 58 333 1.7 1.7 0.00 0.39 0.31 76 1015.1
20260508023824 58 333 1.7 1.7 0.00 0.39 0.31 76 1015.1
20260508023711 58 333 1.7 1.7 0.00 0.39 0.31 76 1015.1
20260508023638 58 333 0.9 1.7 0.00 0.39 0.31 76 1015.1
20260508023609 58 333 0.9 1.7 0.00 0.39 0.31 76 1015.1
20260508023321 59 333 0.9 1.7 0.00 0.39 0.31 76 1015.0
20260508023211 59 333 0.9 1.7 0.00 0.39 0.31 75 1014.9
20260508023118 59 333 0.0 0.9 0.00 0.39 0.31 75 1014.9
20260508023026 59 333 0.0 0.9 0.00 0.39 0.31 75 1014.9
20260508022913 59 333 0.0 0.9 0.00 0.39 0.31 75 1014.9
20260508022820 59 333 0.0 0.9 0.00 0.39 0.31 75 1015.0
20260508022748 59 333 0.0 0.9 0.00 0.39 0.31 75 1015.0
20260508022618 59 333 0.0 0.0 0.00 0.39 0.31 75 1015.0
20260508022527 59 333 0.0 0.0 0.00 0.39 0.31 75 1015.0
20260508022414 59 333 0.0 0.0 0.00 0.39 0.31 75 1015.0
20260508022341 59 333 0.0 0.0 0.00 0.39 0.31 75 1014.9
20260508022228 59 333 0.0 0.0 0.00 0.39 0.31 74 1014.9
20260508022116 59 333 0.0 0.0 0.00 0.39 0.31 75 1014.9
20260508022051 59 333 0.0 0.0 0.00 0.39 0.31 75 1014.9
20260508021843 59 333 0.0 0.0 0.00 0.39 0.31 74 1015.0
20260508021729 59 333 0.0 0.0 0.00 0.39 0.31 74 1014.9
20260508021617 59 333 0.0 0.0 0.00 0.39 0.31 74 1014.9
20260508021544 59 333 0.0 0.0 0.00 0.39 0.31 74 1014.9
20260508021413 59 333 0.0 0.0 0.00 0.39 0.31 74 1014.9
20260508021322 59 333 0.0 0.9 0.00 0.39 0.31 74 1014.9
20260508021230 59 333 0.0 1.7 0.00 0.39 0.31 74 1014.9
20260508021117 60 333 0.0 1.7 0.00 0.39 0.31 74 1014.7
20260508021025 60 333 0.0 1.7 0.00 0.39 0.31 74 1014.7
20260508020916 60 333 0.0 1.7 0.00 0.39 0.31 74 1014.7
20260508020824 60 333 0.0 1.7 0.00 0.39 0.31 74 1014.7
20260508020731 60 333 0.0 1.7 0.00 0.39 0.31 73 1014.8
20260508020700 60 333 0.9 1.7 0.00 0.39 0.31 73 1014.7
20260508020547 60 331 0.9 1.7 0.00 0.39 0.31 73 1014.7
20260508020321 60 329 0.9 1.7 0.00 0.39 0.31 73 1014.8
20260508020213 60 298 0.0 0.9 0.00 0.39 0.31 73 1014.9
20260508020120 60 294 0.0 0.9 0.00 0.39 0.31 73 1014.8
20260508020028 60 294 0.0 0.0 0.00 0.39 0.31 73 1014.8
20260508015915 60 294 0.0 0.0 0.00 0.39 0.31 73 1014.8
20260508015822 60 294 0.0 0.0 0.00 0.39 0.31 73 1014.8
20260508015713 60 294 0.0 0.0 0.00 0.39 0.31 73 1014.8
20260508015620 60 294 0.0 0.0 0.00 0.39 0.31 72 1014.8
20260508015527 60 294 0.0 0.0 0.00 0.39 0.31 72 1014.8
20260508015414 60 294 0.0 0.0 0.00 0.39 0.31 72 1014.8
20260508015320 60 297 0.0 0.0 0.00 0.39 0.31 72 1014.8
20260508015211 60 297 0.0 0.0 0.00 0.39 0.31 72 1014.8
20260508015138 60 297 0.0 0.0 0.00 0.39 0.31 72 1014.8
20260508015108 60 297 0.0 0.0 0.00 0.39 0.31 73 1014.6
20260508014820 60 297 0.0 0.0 0.00 0.39 0.31 73 1014.5
20260508014726 60 297 0.0 0.0 0.00 0.39 0.31 73 1014.5
20260508014619 60 297 0.0 0.0 0.00 0.39 0.31 73 1014.6
20260508014526 61 297 0.0 0.0 0.00 0.39 0.31 72 1014.6
20260508014413 61 297 0.0 0.0 0.00 0.39 0.31 72 1014.6
20260508014341 61 297 0.0 0.0 0.00 0.39 0.31 72 1014.6
20260508014227 61 297 0.0 0.0 0.00 0.39 0.31 72 1014.6
20260508014114 61 297 0.0 0.0 0.00 0.39 0.31 72 1014.5
20260508014026 61 297 0.0 0.0 0.00 0.39 0.31 72 1014.5
20260508013914 61 297 0.0 0.0 0.00 0.39 0.31 71 1014.6
20260508013820 61 297 0.0 0.0 0.00 0.39 0.31 71 1014.6
20260508013748 61 297 0.0 0.9 0.00 0.39 0.31 71 1014.6
20260508013614 61 297 0.0 1.7 0.00 0.39 0.31 71 1014.5
20260508013548 61 297 0.0 1.7 0.00 0.39 0.31 70 1014.5
20260508013341 61 297 0.0 1.7 0.00 0.39 0.31 70 1014.5
20260508013228 61 297 0.0 1.7 0.00 0.39 0.31 70 1014.5
20260508013137 61 297 0.0 1.7 0.00 0.39 0.31 70 1014.5
20260508013023 61 297 0.0 1.7 0.00 0.39 0.31 70 1014.5
20260508012951 61 297 0.9 1.7 0.00 0.39 0.31 70 1014.4
20260508012837 61 297 0.9 1.7 0.00 0.39 0.31 69 1014.6
20260508012727 61 16 0.0 1.7 0.00 0.39 0.31 69 1014.6
20260508012615 61 16 0.0 1.7 0.00 0.39 0.31 68 1014.4
20260508012523 61 16 0.0 1.7 0.00 0.39 0.31 68 1014.4
20260508012430 62 16 0.0 1.7 0.00 0.39 0.31 68 1014.5
20260508012317 62 16 0.0 1.7 0.00 0.39 0.31 68 1014.4
20260508012225 62 16 0.9 1.7 0.00 0.39 0.31 68 1014.4
20260508012157 62 16 0.9 1.7 0.00 0.39 0.31 68 1014.4
20260508012108 62 16 0.9 2.6 0.00 0.39 0.31 68 1014.4
20260508011820 62 16 0.9 2.6 0.00 0.39 0.31 68 1014.3
20260508011748 62 16 1.7 2.6 0.00 0.39 0.31 68 1014.3
20260508011613 62 16 1.7 2.6 0.00 0.39 0.31 67 1014.3
20260508011526 62 16 1.7 2.6 0.00 0.39 0.31 67 1014.3
20260508011413 62 16 1.7 2.6 0.00 0.39 0.31 67 1014.2
20260508011322 62 16 1.7 2.6 0.00 0.39 0.31 66 1014.2
20260508011230 62 16 1.7 2.6 0.00 0.39 0.31 66 1014.3
20260508011119 63 19 1.7 2.6 0.00 0.39 0.31 66 1014.1
20260508011026 63 11 1.7 2.6 0.00 0.39 0.31 66 1014.1
20260508010917 63 360 1.7 2.6 0.00 0.39 0.31 65 1014.1
20260508010824 63 360 1.7 2.6 0.00 0.39 0.31 65 1014.1
20260508010712 63 346 1.7 2.6 0.00 0.39 0.31 64 1014.2
20260508010619 63 334 1.7 2.6 0.00 0.39 0.31 64 1014.2
20260508010552 63 331 1.7 2.6 0.00 0.39 0.31 64 1014.2
20260508010325 63 347 1.7 2.6 0.00 0.39 0.31 63 1014.1
20260508010232 63 355 1.7 2.6 0.00 0.39 0.31 63 1014.1
20260508010118 63 355 1.7 2.6 0.00 0.39 0.31 62 1014.0
20260508010026 63 335 1.7 2.6 0.00 0.39 0.31 62 1014.0
20260508005912 63 332 1.7 2.6 0.00 0.39 0.31 62 1014.0
20260508005823 63 333 1.7 2.6 0.00 0.39 0.31 62 1014.0
20260508005712 63 329 1.7 2.6 0.00 0.39 0.31 63 1014.0
20260508005619 64 319 1.7 2.6 0.00 0.39 0.31 63 1014.0
20260508005526 64 322 0.9 2.6 0.00 0.39 0.31 62 1014.0
20260508005413 64 319 0.9 2.6 0.00 0.39 0.31 63 1014.1
20260508005325 64 319 1.7 2.6 0.00 0.39 0.31 63 1014.1
20260508005212 64 317 1.7 2.6 0.00 0.39 0.31 63 1014.2
20260508005120 64 314 0.9 2.6 0.00 0.39 0.31 63 1014.1
20260508005050 64 298 0.9 1.7 0.00 0.39 0.31 63 1014.1
20260508004824 64 298 1.7 1.7 0.00 0.39 0.31 63 1014.1
20260508004716 64 297 0.9 1.7 0.00 0.39 0.31 63 1014.2
20260508004624 64 297 0.9 1.7 0.00 0.39 0.31 63 1014.2
20260508004531 64 292 1.7 1.7 0.00 0.39 0.31 63 1014.3
20260508004419 64 298 0.9 1.7 0.00 0.39 0.31 63 1014.2
20260508004326 64 298 0.9 1.7 0.00 0.39 0.31 63 1014.2
20260508004216 64 289 0.9 1.7 0.00 0.39 0.31 62 1014.2
20260508004125 64 294 0.9 1.7 0.00 0.39 0.31 62 1014.2
20260508004011 64 294 0.9 1.7 0.00 0.39 0.31 61 1014.1
20260508003918 65 290 0.9 1.7 0.00 0.39 0.31 61 1014.2
20260508003825 65 291 0.9 2.6 0.00 0.39 0.31 61 1014.2
20260508003712 65 291 0.9 2.6 0.00 0.39 0.31 61 1014.2
20260508003624 65 293 0.9 2.6 0.00 0.39 0.31 61 1014.2
20260508003556 65 294 0.9 3.5 0.00 0.39 0.31 61 1014.1
20260508003330 65 311 0.9 3.5 0.00 0.39 0.31 61 1014.1
20260508003217 65 311 0.9 3.5 0.00 0.39 0.31 60 1014.0
20260508003129 65 311 0.9 4.3 0.00 0.39 0.31 60 1014.0
20260508003018 65 312 1.7 4.3 0.00 0.39 0.31 59 1014.1
20260508002925 65 316 1.7 4.3 0.00 0.39 0.31 59 1014.1
20260508002813 65 310 1.7 4.3 0.00 0.39 0.31 57 1014.1
20260508002740 65 321 2.6 4.3 0.00 0.39 0.31 57 1014.0
20260508002625 65 317 2.6 4.3 0.00 0.39 0.31 57 1014.0
20260508002517 65 308 2.6 4.3 0.00 0.39 0.31 57 1014.1
20260508002444 65 298 2.6 4.3 0.00 0.39 0.31 57 1014.1
20260508002350 65 321 2.6 4.3 0.00 0.39 0.31 57 1014.1
20260508002217 65 333 2.6 4.3 0.00 0.39 0.31 56 1014.0
20260508002145 65 309 2.6 3.5 0.00 0.39 0.31 56 1014.0
20260508002054 65 318 2.6 3.5 0.00 0.39 0.31 56 1013.9
20260508001812 66 299 1.7 3.5 0.00 0.39 0.31 56 1013.9
20260508001719 66 320 1.7 3.5 0.00 0.39 0.31 56 1014.0
20260508001645 66 326 1.7 3.5 0.00 0.39 0.31 55 1014.0
20260508001531 66 321 1.7 4.3 0.00 0.39 0.31 56 1013.9
20260508001418 66 302 2.6 4.3 0.00 0.39 0.31 55 1013.9
20260508001325 66 328 2.6 4.3 0.00 0.39 0.31 55 1013.9
20260508001217 66 320 1.7 4.3 0.00 0.39 0.31 55 1013.8
20260508001124 66 320 2.6 4.3 0.00 0.39 0.31 55 1013.8
20260508001032 66 337 2.6 4.3 0.00 0.39 0.31 55 1013.8
20260508000918 66 305 1.7 4.3 0.00 0.39 0.31 55 1013.8
20260508000845 66 312 2.6 4.3 0.00 0.39 0.31 55 1013.8
20260508000733 66 321 2.6 4.3 0.00 0.39 0.31 54 1013.8
20260508000623 66 318 1.7 3.5 0.00 0.39 0.31 54 1013.8
20260508000553 66 288 1.7 3.5 0.00 0.39 0.31 54 1013.8
20260508000327 66 303 1.7 5.2 0.00 0.39 0.31 54 1013.7
20260508000215 66 321 1.7 5.2 0.00 0.39 0.31 54 1013.7
20260508000122 67 332 2.6 7.0 0.00 0.39 0.31 54 1013.7
20260508000014 67 310 2.6 7.0 0.00 0.39 0.31 54 1013.7
20260507235922 67 305 2.6 7.0 0.00 0.39 0.31 54 1013.7
20260507235828 67 300 2.6 7.0 0.00 0.39 0.31 54 1013.6
20260507235715 67 327 2.6 7.0 0.00 0.39 0.31 53 1013.5
20260507235622 67 319 3.5 7.0 0.00 0.39 0.31 53 1013.5
20260507235535 67 311 4.3 7.0 0.00 0.39 0.31 54 1013.5
20260507235422 67 323 4.3 7.0 0.00 0.39 0.31 53 1013.5
20260507235329 67 333 3.5 7.0 0.00 0.39 0.31 53 1013.5
20260507235215 67 321 3.5 5.2 0.00 0.39 0.31 53 1013.4
20260507235124 67 325 3.5 5.2 0.00 0.39 0.31 53 1013.4
20260507235059 67 321 4.3 5.2 0.00 0.39 0.31 53 1013.3
20260507234833 67 340 3.5 5.2 0.00 0.39 0.31 53 1013.5
20260507234740 67 322 2.6 5.2 0.00 0.39 0.31 53 1013.5
20260507234646 67 342 3.5 5.2 0.00 0.39 0.31 53 1013.5
20260507234532 67 310 3.5 6.1 0.00 0.39 0.31 53 1013.5
20260507234418 67 297 3.5 5.2 0.00 0.46 0.31 53 1013.5
20260507234325 67 300 3.5 7.0 0.00 0.46 0.31 53 1013.5
20260507234233 67 319 3.5 7.0 0.00 0.46 0.31 53 1013.5
20260507234123 67 311 3.5 7.0 0.00 0.46 0.31 53 1013.5
20260507234030 67 290 2.6 7.0 0.00 0.46 0.31 53 1013.5
20260507233918 67 333 3.5 7.0 0.00 0.46 0.31 53 1013.5
20260507233825 67 298 3.5 7.0 0.00 0.46 0.31 53 1013.5
20260507233711 67 344 4.3 8.7 0.00 0.46 0.31 53 1013.5
20260507233622 67 320 4.3 8.7 0.00 0.46 0.31 52 1013.5
20260507233552 67 316 4.3 8.7 0.00 0.46 0.31 52 1013.5
20260507233325 67 321 4.3 8.7 0.00 0.46 0.31 52 1013.5
20260507233212 67 325 3.5 8.7 0.00 0.46 0.31 52 1013.4
20260507233120 67 315 3.5 8.7 0.00 0.46 0.31 52 1013.5
20260507233010 67 332 4.3 8.7 0.00 0.46 0.31 52 1013.4
20260507232918 67 308 4.3 8.7 0.00 0.46 0.31 52 1013.3
20260507232827 67 323 4.3 8.7 0.00 0.46 0.31 52 1013.3
20260507232714 67 344 4.3 7.0 0.00 0.46 0.31 52 1013.4
20260507232620 68 324 5.2 7.0 0.00 0.46 0.31 52 1013.4
20260507232513 68 319 5.2 7.0 0.00 0.46 0.31 52 1013.4
20260507232441 68 344 4.3 7.0 0.00 0.46 0.31 51 1013.4
20260507232327 68 325 3.5 7.8 0.00 0.46 0.31 51 1013.4
20260507232235 68 298 3.5 7.8 0.00 0.46 0.31 52 1013.5
20260507232122 68 320 3.5 8.7 0.00 0.46 0.31 52 1013.5
20260507232056 68 350 4.3 8.7 0.00 0.46 0.31 52 1013.5
20260507231830 68 344 4.3 8.7 0.00 0.46 0.31 51 1013.6
20260507231719 68 355 4.3 8.7 0.00 0.46 0.31 52 1013.6
20260507231625 68 329 5.2 8.7 0.00 0.46 0.31 52 1013.6
20260507231513 68 331 4.3 8.7 0.00 0.46 0.31 51 1013.5
20260507231420 68 355 3.5 8.7 0.00 0.46 0.31 51 1013.4
20260507231352 68 5 4.3 8.7 0.00 0.46 0.31 51 1013.4
20260507231217 68 303 6.1 8.7 0.00 0.46 0.31 51 1013.5
20260507231145 68 318 6.1 8.7 0.00 0.46 0.31 51 1013.5
20260507231012 68 334 5.2 8.7 0.00 0.46 0.31 51 1013.5
20260507230921 68 360 5.2 10.4 0.00 0.46 0.31 51 1013.6
20260507230829 69 322 4.3 10.4 0.00 0.46 0.31 50 1013.6
20260507230721 69 346 4.3 10.4 0.00 0.46 0.31 51 1013.7
20260507230628 69 313 5.2 10.4 0.00 0.46 0.31 50 1013.6
20260507230600 69 325 6.1 10.4 0.00 0.46 0.31 50 1013.6
20260507230313 69 315 7.0 10.4 0.00 0.46 0.31 50 1013.5
20260507230224 69 298 6.1 10.4 0.00 0.46 0.31 50 1013.5
20260507230113 69 324 7.0 10.4 0.00 0.46 0.31 52 1013.4
20260507230021 69 346 6.1 10.4 0.00 0.46 0.31 52 1013.5
20260507225928 69 278 3.5 9.6 0.00 0.46 0.31 52 1013.5
20260507225817 69 340 3.5 10.4 0.00 0.46 0.31 52 1013.4
20260507225744 69 302 4.3 11.3 0.00 0.46 0.31 52 1013.4
20260507225612 69 350 5.2 11.3 0.00 0.46 0.31 52 1013.4
20260507225521 69 327 5.2 11.3 0.00 0.46 0.31 52 1013.4
20260507225430 69 360 5.2 11.3 0.00 0.46 0.31 52 1013.4
20260507225317 69 347 5.2 11.3 0.00 0.46 0.31 51 1013.5
20260507225225 69 311 7.0 11.3 0.00 0.46 0.31 50 1013.5
20260507225115 69 308 7.8 11.3 0.00 0.46 0.31 50 1013.5
20260507225045 69 344 7.8 11.3 0.00 0.46 0.31 51 1013.5
20260507224819 70 294 6.1 9.6 0.00 0.46 0.31 51 1013.4
20260507224725 70 307 6.1 9.6 0.00 0.46 0.31 51 1013.4
20260507224634 70 322 6.1 9.6 0.00 0.46 0.31 50 1013.4
20260507224524 70 330 5.2 9.6 0.00 0.46 0.31 51 1013.4
20260507224432 70 327 6.1 9.6 0.00 0.55 0.31 51 1013.4
20260507224319 70 317 6.1 9.6 0.00 0.55 0.31 50 1013.5
20260507224227 70 320 7.0 9.6 0.00 0.55 0.31 50 1013.5
20260507224114 70 302 6.1 9.6 0.00 0.55 0.31 51 1013.5
20260507224042 70 325 5.2 10.4 0.00 0.55 0.31 51 1013.5
20260507223948 70 326 5.2 10.4 0.00 0.55 0.31 51 1013.6
20260507223818 70 341 3.5 10.4 0.00 0.55 0.31 51 1013.5
20260507223725 70 322 4.3 10.4 0.00 0.55 0.31 51 1013.5
20260507223614 70 336 6.1 10.4 0.00 0.55 0.31 50 1013.6
20260507223545 70 317 6.1 10.4 0.00 0.55 0.31 50 1013.6
20260507223321 71 319 7.0 10.4 0.00 0.55 0.31 50 1013.5
20260507223229 71 320 6.1 10.4 0.00 0.55 0.31 50 1013.5
20260507223118 71 319 6.1 9.6 0.00 0.55 0.31 51 1013.5
20260507223025 71 338 5.2 9.6 0.00 0.55 0.31 51 1013.5
20260507222911 71 348 4.3 8.7 0.00 0.55 0.31 52 1013.5
20260507222820 71 306 4.3 8.7 0.00 0.55 0.31 51 1013.4
20260507222711 71 325 4.3 8.7 0.00 0.55 0.31 51 1013.4
20260507222619 71 342 4.3 9.6 0.00 0.55 0.31 50 1013.4
20260507222525 71 307 4.3 9.6 0.00 0.55 0.31 50 1013.4
20260507222432 71 329 4.3 9.6 0.00 0.55 0.31 50 1013.4
20260507222319 71 275 4.3 9.6 0.00 0.55 0.31 51 1013.3
20260507222226 71 302 5.2 9.6 0.00 0.55 0.31 51 1013.3
20260507222137 71 279 5.2 9.6 0.00 0.55 0.31 50 1013.3
20260507222046 71 248 5.2 9.6 0.00 0.55 0.31 52 1013.2
20260507221841 71 331 6.1 9.6 0.00 0.55 0.31 52 1013.3
20260507221727 71 309 6.1 9.6 0.00 0.55 0.31 51 1013.3
20260507221634 71 339 4.3 8.7 0.00 0.55 0.31 51 1013.3
20260507221525 71 329 4.3 8.7 0.00 0.55 0.31 51 1013.3
20260507221411 71 331 4.3 9.6 0.00 0.55 0.31 51 1013.2
20260507221320 72 329 3.5 9.6 0.00 0.55 0.31 51 1013.2
20260507221227 72 5 5.2 9.6 0.00 0.55 0.31 51 1013.2
20260507221113 72 331 5.2 9.6 0.00 0.55 0.31 50 1013.3
20260507221020 72 313 3.5 9.6 0.00 0.55 0.31 50 1013.3
20260507220931 72 334 2.6 9.6 0.00 0.55 0.31 49 1013.3
20260507220818 72 310 4.3 9.6 0.00 0.55 0.31 49 1013.4
20260507220725 72 331 5.2 9.6 0.00 0.55 0.31 49 1013.4
20260507220612 72 348 6.1 9.6 0.00 0.55 0.31 49 1013.4
20260507220548 72 322 5.2 8.7 0.00 0.55 0.31 49 1013.4
20260507220319 72 326 5.2 8.7 0.00 0.55 0.31 49 1013.4
20260507220227 72 338 4.3 8.7 0.00 0.55 0.31 50 1013.4
20260507220115 72 268 2.6 7.8 0.00 0.55 0.31 50 1013.5
20260507220021 72 325 2.6 9.6 0.00 0.55 0.31 50 1013.5
20260507215913 72 318 2.6 9.6 0.00 0.55 0.31 51 1013.3
20260507215821 72 325 3.5 9.6 0.00 0.55 0.31 52 1013.3
20260507215727 72 329 3.5 9.6 0.00 0.55 0.31 50 1013.3
20260507215615 72 26 3.5 9.6 0.00 0.55 0.31 50 1013.3
20260507215522 72 5 3.5 9.6 0.00 0.55 0.31 50 1013.3
20260507215430 72 343 4.3 9.6 0.00 0.55 0.31 50 1013.3
20260507215320 72 346 6.1 9.6 0.00 0.55 0.31 51 1013.3
20260507215228 72 339 5.2 9.6 0.00 0.55 0.31 52 1013.3
20260507215136 72 355 5.2 10.4 0.00 0.55 0.31 51 1013.3
20260507215107 72 338 4.3 10.4 0.00 0.55 0.31 51 1013.2
20260507214840 72 336 4.3 10.4 0.00 0.55 0.31 51 1013.4
20260507214724 72 294 5.2 10.4 0.00 0.55 0.31 50 1013.4
20260507214617 72 304 5.2 10.4 0.00 0.55 0.31 50 1013.4
20260507214523 72 284 5.2 10.4 0.00 0.55 0.31 50 1013.4
20260507214430 72 302 6.1 10.4 0.00 0.55 0.31 50 1013.3
20260507214318 73 303 5.2 10.4 0.00 0.82 0.31 50 1013.2
20260507214226 72 274 3.5 10.4 0.00 0.82 0.31 51 1013.2
20260507214116 72 323 3.5 10.4 0.00 0.82 0.31 51 1013.1
20260507214045 72 333 4.3 10.4 0.00 0.82 0.31 50 1013.1
20260507213911 72 316 4.3 10.4 0.00 0.82 0.31 51 1013.2
20260507213818 72 329 4.3 10.4 0.00 0.82 0.31 50 1013.2
20260507213745 72 323 4.3 10.4 0.00 0.82 0.31 50 1013.2
20260507213612 72 317 4.3 10.4 0.00 0.82 0.31 50 1013.2
20260507213546 72 319 4.3 10.4 0.00 0.82 0.31 52 1013.2
20260507213319 72 325 4.3 9.6 0.00 0.82 0.31 52 1013.2
20260507213227 72 331 4.3 9.6 0.00 0.82 0.31 52 1013.2
20260507213114 72 355 4.3 9.6 0.00 0.82 0.31 52 1013.3
20260507213023 72 355 6.1 9.6 0.00 0.82 0.31 51 1013.3
20260507212915 72 342 7.0 9.6 0.00 0.82 0.31 51 1013.3
20260507212822 72 360 6.1 8.7 0.00 0.82 0.31 50 1013.3
20260507212729 72 331 3.5 8.7 0.00 0.82 0.31 50 1013.3
20260507212617 72 294 3.5 9.6 0.00 0.82 0.31 49 1013.2
20260507212525 72 9 4.3 12.2 0.00 0.82 0.31 49 1013.2
20260507212417 72 76 5.2 12.2 0.00 0.82 0.31 50 1013.3
20260507212344 72 279 5.2 12.2 0.00 0.82 0.31 50 1013.3
20260507212251 72 329 6.1 12.2 0.00 0.82 0.31 50 1013.3
20260507212117 72 294 5.2 12.2 0.00 0.82 0.31 51 1013.3
20260507212047 72 307 6.1 12.2 0.00 0.82 0.31 51 1013.3
20260507211821 72 314 7.0 12.2 0.00 0.82 0.31 51 1013.3
20260507211712 72 320 5.2 12.2 0.00 0.82 0.31 51 1013.2
20260507211640 72 304 4.3 9.6 0.00 0.82 0.31 51 1013.1
20260507211527 72 319 4.3 9.6 0.00 0.82 0.31 51 1013.1
20260507211413 72 275 5.2 11.3 0.00 0.82 0.31 50 1013.3
20260507211321 72 309 5.2 11.3 0.00 0.82 0.31 51 1013.3
20260507211212 72 267 5.2 11.3 0.00 0.82 0.31 50 1013.3
20260507211118 72 296 6.1 11.3 0.00 0.82 0.31 51 1013.2
20260507211024 72 253 5.2 11.3 0.00 0.82 0.31 51 1013.2
20260507210912 72 243 5.2 11.3 0.00 0.82 0.31 51 1013.3
20260507210820 72 292 4.3 11.3 0.00 0.82 0.31 51 1013.2
20260507210727 72 346 5.2 11.3 0.00 0.82 0.31 52 1013.2
20260507210620 72 304 4.3 11.3 0.00 0.82 0.31 52 1013.2
20260507210548 72 338 4.3 11.3 0.00 0.82 0.31 51 1013.2
20260507210322 72 300 4.3 11.3 0.00 0.82 0.31 51 1013.2
20260507210229 72 311 6.1 11.3 0.00 0.82 0.31 50 1013.3
20260507210116 72 311 6.1 11.3 0.00 0.82 0.31 50 1013.2
20260507210027 72 309 5.2 11.3 0.00 0.82 0.31 52 1013.2
20260507205914 72 308 5.2 8.7 0.00 0.82 0.31 54 1013.2
20260507205822 71 5 5.2 8.7 0.00 0.82 0.31 54 1013.2
20260507205711 71 349 5.2 7.8 0.00 0.82 0.31 55 1013.2
20260507205619 71 355 5.2 7.8 0.00 0.82 0.31 54 1013.2
20260507205510 71 13 4.3 7.8 0.00 0.82 0.31 54 1013.4
20260507205417 71 16 3.5 7.8 0.00 0.82 0.31 54 1013.3
20260507205326 71 344 3.5 8.7 0.00 0.82 0.31 54 1013.3
20260507205234 71 319 3.5 8.7 0.00 0.82 0.31 56 1013.3
20260507205119 71 360 3.5 8.7 0.00 0.82 0.31 53 1013.4
20260507205054 71 360 3.5 8.7 0.00 0.82 0.31 53 1013.4
20260507204828 71 355 3.5 8.7 0.00 0.82 0.31 54 1013.4
20260507204715 71 310 4.3 8.7 0.00 0.82 0.31 54 1013.3
20260507204623 71 332 5.2 8.7 0.00 0.82 0.31 54 1013.3
20260507204511 70 338 5.2 8.7 0.00 0.82 0.31 54 1013.4
20260507204421 70 328 5.2 8.7 0.00 0.82 0.31 54 1013.4
20260507204328 70 311 5.2 8.7 0.00 1.21 0.31 54 1013.3
20260507204216 70 243 5.2 8.7 0.00 1.21 0.31 55 1013.2
20260507204124 70 294 4.3 8.7 0.00 1.21 0.31 55 1013.2
20260507204012 70 331 4.3 8.7 0.00 1.21 0.31 56 1013.3
20260507203919 70 297 3.5 8.7 0.00 1.21 0.31 57 1013.3
20260507203830 70 355 3.5 8.7 0.00 1.21 0.31 57 1013.3
20260507203738 70 336 3.5 8.7 0.00 1.21 0.31 56 1013.2
20260507203706 70 360 5.2 9.6 0.00 1.21 0.31 54 1013.3
20260507203614 70 355 5.2 10.4 0.00 1.21 0.31 54 1013.3
20260507203347 70 321 6.1 10.4 0.00 1.21 0.31 54 1013.3
20260507203234 70 319 6.1 11.3 0.00 1.21 0.31 54 1013.3
20260507203124 70 331 5.2 11.3 0.00 1.21 0.31 53 1013.3
20260507203011 70 288 6.1 11.3 0.00 1.21 0.31 52 1013.4
20260507202919 71 323 7.0 11.3 0.00 1.21 0.31 53 1013.4
20260507202825 71 325 7.8 11.3 0.00 1.21 0.31 53 1013.4
20260507202713 71 347 7.0 11.3 0.00 1.21 0.31 53 1013.4
20260507202624 71 335 7.8 11.3 0.00 1.21 0.31 54 1013.4
20260507202512 71 350 8.7 11.3 0.00 1.21 0.31 54 1013.4
20260507202420 71 335 8.7 11.3 0.00 1.21 0.31 54 1013.3
20260507202347 71 328 7.0 11.3 0.00 1.21 0.31 55 1013.3
20260507202213 71 355 4.3 8.7 0.00 1.21 0.31 54 1013.3
20260507202121 71 302 3.5 8.7 0.00 1.21 0.31 53 1013.3
20260507202056 71 312 3.5 10.4 0.00 1.21 0.31 53 1013.3
20260507201830 71 342 3.5 10.4 0.00 1.21 0.31 54 1013.4
20260507201718 70 319 4.3 10.4 0.00 1.21 0.31 55 1013.4
20260507201646 70 330 4.3 10.4 0.00 1.21 0.31 55 1013.4
20260507201551 70 298 5.2 10.4 0.00 1.21 0.31 55 1013.4
20260507201421 70 319 6.1 10.4 0.00 1.21 0.31 54 1013.3
20260507201328 70 288 7.0 10.4 0.00 1.21 0.31 55 1013.5
20260507201216 70 284 6.1 10.4 0.00 1.21 0.31 55 1013.4
20260507201123 70 277 4.3 9.6 0.00 1.21 0.31 57 1013.4
20260507201029 70 267 3.5 9.6 0.00 1.21 0.31 57 1013.4
20260507200916 70 350 3.5 9.6 0.00 1.21 0.31 55 1013.5
20260507200847 70 333 3.5 9.6 0.00 1.21 0.31 54 1013.5
20260507200713 70 332 6.1 9.6 0.00 1.21 0.31 54 1013.5
20260507200622 70 325 6.1 10.4 0.00 1.21 0.31 53 1013.5
20260507200552 70 339 6.1 10.4 0.00 1.21 0.31 54 1013.5
20260507200311 71 338 5.2 10.4 0.00 1.21 0.31 55 1013.4
20260507200219 71 350 5.2 10.4 0.00 1.21 0.31 55 1013.5
20260507200127 71 324 5.2 11.3 0.00 1.21 0.31 55 1013.5
20260507200013 71 29 7.0 11.3 0.00 1.21 0.31 55 1013.5
20260507195940 71 355 7.0 11.3 0.00 1.21 0.31 56 1013.4
20260507195828 71 324 7.8 11.3 0.00 1.21 0.31 57 1013.4
20260507195720 71 321 7.0 11.3 0.00 1.21 0.31 58 1013.3
20260507195628 71 21 6.1 11.3 0.00 1.21 0.31 59 1013.3
20260507195517 71 345 7.0 11.3 0.00 1.21 0.31 57 1013.3
20260507195425 70 338 7.0 11.3 0.00 1.21 0.31 58 1013.3
20260507195311 70 321 5.2 11.3 0.00 1.21 0.31 58 1013.3
20260507195219 70 292 3.5 9.6 0.00 1.21 0.31 58 1013.4
20260507195129 70 322 5.2 11.3 0.00 1.21 0.31 58 1013.4
20260507195100 70 344 6.1 11.3 0.00 1.21 0.31 58 1013.4
20260507194814 70 330 7.0 11.3 0.00 1.21 0.31 56 1013.4
20260507194722 70 340 7.0 11.3 0.00 1.21 0.31 54 1013.4
20260507194633 71 336 7.0 11.3 0.00 1.21 0.31 55 1013.4
20260507194519 71 302 7.0 11.3 0.00 1.21 0.31 57 1013.3
20260507194427 71 315 7.8 11.3 0.00 1.21 0.31 58 1013.3
20260507194333 71 337 7.0 11.3 0.00 1.30 0.31 57 1013.4
20260507194220 71 348 7.8 10.4 0.00 1.30 0.31 56 1013.4
20260507194128 71 351 7.0 10.4 0.00 1.30 0.31 56 1013.4
20260507194020 71 355 4.3 10.4 0.00 1.30 0.31 58 1013.4
20260507193928 71 333 4.3 12.2 0.00 1.30 0.31 58 1013.4
20260507193815 71 332 5.2 12.2 0.00 1.30 0.31 56 1013.4
20260507193724 71 320 5.2 12.2 0.00 1.30 0.31 58 1013.4
20260507193651 71 355 6.1 12.2 0.00 1.30 0.31 58 1013.5
20260507193624 71 345 7.0 12.2 0.00 1.30 0.31 55 1013.5
20260507193337 71 315 7.8 12.2 0.00 1.30 0.31 57 1013.4
20260507193224 71 317 7.0 12.2 0.00 1.30 0.31 59 1013.4
20260507193111 71 355 6.1 12.2 0.00 1.30 0.31 57 1013.4
20260507193019 71 348 7.8 12.2 0.00 1.30 0.31 57 1013.4
20260507192926 71 334 9.6 12.2 0.00 1.30 0.31 57 1013.4
20260507192818 71 335 7.8 12.2 0.00 1.30 0.31 55 1013.4
20260507192727 71 309 7.8 12.2 0.00 1.30 0.31 55 1013.4
20260507192615 71 311 7.8 12.2 0.00 1.30 0.31 55 1013.3
20260507192523 71 328 7.8 12.2 0.00 1.30 0.31 55 1013.3
20260507192450 71 330 6.1 10.4 0.00 1.30 0.31 56 1013.3
20260507192337 71 329 5.2 10.4 0.00 1.30 0.31 56 1013.2
20260507192226 71 325 4.3 10.4 0.00 1.30 0.31 56 1013.2
20260507192155 71 348 4.3 10.4 0.00 1.30 0.31 56 1013.3
20260507192125 71 355 5.2 10.4 0.00 1.30 0.31 57 1013.2
20260507191818 71 360 6.1 10.4 0.00 1.30 0.31 57 1013.4
20260507191725 71 321 6.1 10.4 0.00 1.30 0.31 57 1013.4
20260507191617 71 341 6.1 10.4 0.00 1.30 0.31 59 1013.2
20260507191525 71 332 7.0 10.4 0.00 1.30 0.31 57 1013.2
20260507191412 71 355 7.0 10.4 0.00 1.30 0.31 55 1013.3
20260507191340 71 321 7.8 10.4 0.00 1.30 0.31 56 1013.3
20260507191246 71 313 7.0 10.4 0.00 1.30 0.31 56 1013.3
20260507191111 71 334 6.1 10.4 0.00 1.30 0.31 57 1013.3
20260507191039 71 265 4.3 10.4 0.00 1.30 0.31 57 1013.3
20260507190928 71 319 4.3 10.4 0.00 1.30 0.31 57 1013.3
20260507190816 70 306 5.2 7.8 0.00 1.30 0.31 58 1013.3
20260507190744 70 16 5.2 7.8 0.00 1.30 0.31 59 1013.3
20260507190611 70 355 4.3 8.7 0.00 1.30 0.31 60 1013.2
20260507190546 70 23 4.3 8.7 0.00 1.30 0.31 60 1013.2
20260507190319 70 290 3.5 9.6 0.00 1.30 0.31 57 1013.3
20260507190227 70 351 2.6 9.6 0.00 1.30 0.31 58 1013.3
20260507190113 70 57 1.7 9.6 0.00 1.30 0.31 58 1013.4
20260507190021 70 346 2.6 9.6 0.00 1.30 0.31 58 1013.4
20260507185930 70 24 3.5 9.6 0.00 1.30 0.31 59 1013.3
20260507185823 70 339 5.2 9.6 0.00 1.30 0.31 59 1013.3
20260507185729 70 306 7.0 9.6 0.00 1.30 0.31 59 1013.3
20260507185618 70 355 6.1 9.6 0.00 1.30 0.31 59 1013.3
20260507185525 70 330 6.1 8.7 0.00 1.30 0.31 57 1013.3
20260507185411 70 360 5.2 8.7 0.00 1.30 0.31 57 1013.3
20260507185322 70 36 4.3 10.4 0.00 1.30 0.31 59 1013.3
20260507185229 70 46 2.6 10.4 0.00 1.30 0.31 59 1013.3
20260507185118 70 344 2.6 10.4 0.00 1.30 0.31 59 1013.4
20260507185047 70 342 2.6 10.4 0.00 1.30 0.31 58 1013.4
20260507184822 70 304 4.3 10.4 0.00 1.30 0.31 58 1013.4
20260507184713 70 321 5.2 10.4 0.00 1.30 0.31 58 1013.5
20260507184640 70 298 5.2 10.4 0.00 1.30 0.31 58 1013.4
20260507184547 70 327 6.1 12.2 0.00 1.30 0.31 57 1013.4
20260507184413 70 192 6.1 13.0 0.00 1.50 0.31 58 1013.4
20260507184341 70 322 6.1 14.8 0.00 1.50 0.31 57 1013.4
20260507184227 70 300 4.3 14.8 0.00 1.50 0.31 57 1013.4
20260507184119 70 273 4.3 14.8 0.00 1.50 0.31 57 1013.4
20260507184027 70 295 6.1 14.8 0.00 1.50 0.31 59 1013.4
20260507183913 70 339 7.8 14.8 0.00 1.50 0.31 59 1013.4
20260507183821 70 17 7.8 14.8 0.00 1.50 0.31 59 1013.4
20260507183730 70 338 8.7 14.8 0.00 1.50 0.31 59 1013.4
20260507183617 70 319 7.8 14.8 0.00 1.50 0.31 59 1013.3
20260507183551 70 329 7.0 14.8 0.00 1.50 0.31 59 1013.3
20260507183324 69 330 4.3 10.4 0.00 1.50 0.31 58 1013.3
20260507183210 69 57 5.2 10.4 0.00 1.50 0.31 59 1013.4
20260507183118 69 324 6.1 10.4 0.00 1.50 0.31 60 1013.3
20260507183030 69 325 5.2 10.4 0.00 1.50 0.31 60 1013.3
20260507182918 69 336 6.1 12.2 0.00 1.50 0.31 60 1013.2
20260507182825 69 325 5.2 12.2 0.00 1.50 0.31 61 1013.2
20260507182711 69 5 7.0 12.2 0.00 1.50 0.31 61 1013.4
20260507182639 69 344 6.1 12.2 0.00 1.50 0.31 61 1013.4
20260507182525 69 336 4.3 12.2 0.00 1.50 0.31 60 1013.4
20260507182417 69 308 4.3 12.2 0.00 1.50 0.31 61 1013.4
20260507182325 69 15 5.2 12.2 0.00 1.50 0.31 60 1013.4
20260507182212 69 17 6.1 12.2 0.00 1.50 0.31 60 1013.5
20260507182121 69 355 7.0 12.2 0.00 1.50 0.31 62 1013.5
20260507182055 69 20 7.8 12.2 0.00 1.50 0.31 61 1013.6
20260507181829 69 5 7.0 12.2 0.00 1.50 0.31 63 1013.7
20260507181716 68 20 7.0 12.2 0.00 1.50 0.31 62 1013.6
20260507181625 68 23 7.8 12.2 0.00 1.50 0.31 62 1013.6
20260507181512 68 346 7.0 12.2 0.00 1.50 0.31 61 1013.6
20260507181418 68 26 7.0 12.2 0.00 1.50 0.31 61 1013.6
20260507181311 68 296 5.2 12.2 0.00 1.50 0.31 62 1013.6
20260507181219 68 315 5.2 12.2 0.00 1.50 0.31 61 1013.6
20260507181127 68 316 6.1 12.2 0.00 1.50 0.31 59 1013.6
20260507181033 68 317 7.8 12.2 0.00 1.50 0.31 61 1013.8
20260507180919 68 319 7.0 12.2 0.00 1.50 0.31 60 1013.8
20260507180845 68 313 6.1 12.2 0.00 1.50 0.31 60 1013.8
20260507180714 68 311 7.0 12.2 0.00 1.50 0.31 61 1013.9
20260507180621 68 299 7.8 12.2 0.00 1.50 0.31 62 1013.9
20260507180552 68 304 7.0 12.2 0.00 1.50 0.31 62 1013.9
20260507180326 68 350 5.2 11.3 0.00 1.50 0.31 62 1014.0
20260507180218 68 344 4.3 10.4 0.00 1.50 0.31 63 1014.0
20260507180124 68 355 5.2 10.4 0.00 1.50 0.31 63 1014.0
20260507180011 68 355 6.1 10.4 0.00 1.50 0.31 61 1014.1
20260507175919 68 345 7.0 10.4 0.00 1.50 0.31 62 1014.1
20260507175827 68 314 6.1 10.4 0.00 1.50 0.31 62 1014.1
20260507175714 67 328 7.0 10.4 0.00 1.50 0.31 63 1014.1
20260507175625 67 11 6.1 11.3 0.00 1.50 0.31 63 1014.1
20260507175512 67 5 4.3 11.3 0.00 1.50 0.31 62 1014.1
20260507175439 67 39 4.3 11.3 0.00 1.50 0.31 63 1014.1
20260507175326 67 25 6.1 11.3 0.00 1.50 0.31 61 1014.1
20260507175232 67 355 5.2 11.3 0.00 1.50 0.31 62 1014.2
20260507175118 67 34 6.1 11.3 0.00 1.50 0.31 63 1014.2
20260507175053 67 16 6.1 11.3 0.00 1.50 0.31 61 1014.2
20260507174827 67 5 7.0 11.3 0.00 1.50 0.31 60 1014.2
20260507174715 67 321 6.1 13.0 0.00 1.50 0.31 60 1014.2
20260507174622 67 319 5.2 13.0 0.00 1.50 0.31 60 1014.2
20260507174514 67 340 6.1 13.0 0.00 1.50 0.31 62 1014.2
20260507174441 67 344 7.0 13.0 0.00 1.50 0.31 62 1014.3
20260507174328 67 331 5.2 13.0 0.00 1.99 0.31 62 1014.3
20260507174216 67 348 5.2 13.0 0.00 1.99 0.31 60 1014.3
20260507174124 67 317 6.1 13.0 0.00 1.99 0.31 61 1014.3
20260507174030 68 323 7.0 13.0 0.00 1.99 0.31 61 1014.4
20260507173922 68 329 7.8 13.0 0.00 1.99 0.31 62 1014.4
20260507173830 67 360 6.1 13.0 0.00 1.99 0.31 62 1014.4
20260507173718 67 355 5.2 10.4 0.00 1.99 0.31 62 1014.4
20260507173625 67 360 6.1 10.4 0.00 1.99 0.31 63 1014.4
20260507173555 67 355 6.1 10.4 0.00 1.99 0.31 63 1014.4
20260507173312 67 360 6.1 10.4 0.00 1.99 0.31 61 1014.4
20260507173219 67 312 6.1 10.4 0.00 1.99 0.31 62 1014.4
20260507173127 67 306 5.2 10.4 0.00 1.99 0.31 63 1014.4
20260507173015 67 360 4.3 10.4 0.00 1.99 0.31 61 1014.4
20260507172923 67 9 4.3 10.4 0.00 1.99 0.31 61 1014.4
20260507172814 67 329 4.3 10.4 0.00 1.99 0.31 60 1014.4
20260507172742 67 360 4.3 10.4 0.00 1.99 0.31 59 1014.4
20260507172629 67 305 4.3 10.4 0.00 1.99 0.31 59 1014.5
20260507172515 67 325 5.2 10.4 0.00 1.99 0.31 63 1014.6
20260507172443 67 340 6.1 10.4 0.00 1.99 0.31 63 1014.6
20260507172350 67 23 6.1 10.4 0.00 1.99 0.31 63 1014.6
20260507172216 67 355 5.2 9.6 0.00 1.99 0.31 62 1014.5
20260507172127 67 336 5.2 9.6 0.00 1.99 0.31 62 1014.5
20260507172057 67 337 6.1 9.6 0.00 1.99 0.31 62 1014.6
20260507171830 67 15 6.1 8.7 0.00 1.99 0.31 63 1014.4
20260507171717 67 342 7.0 8.7 0.00 1.99 0.31 64 1014.5
20260507171628 67 351 5.2 9.6 0.00 1.99 0.31 64 1014.5
20260507171515 67 19 5.2 9.6 0.00 1.99 0.31 63 1014.5
20260507171443 67 17 5.2 9.6 0.00 1.99 0.31 63 1014.5
20260507171329 67 349 5.2 9.6 0.00 1.99 0.31 63 1014.5
20260507171217 67 5 4.3 9.6 0.00 1.99 0.31 62 1014.5
20260507171125 66 21 4.3 9.6 0.00 1.99 0.31 62 1014.5
20260507171018 66 319 5.2 9.6 0.00 1.99 0.31 64 1014.6
20260507170924 66 40 6.1 10.4 0.00 1.99 0.31 64 1014.6
20260507170811 66 324 6.1 10.4 0.00 1.99 0.31 63 1014.5
20260507170718 66 18 5.2 10.4 0.00 1.99 0.31 63 1014.5
20260507170646 66 33 5.2 12.2 0.00 1.99 0.31 64 1014.5
20260507170559 66 23 6.1 12.2 0.00 1.99 0.31 63 1014.5
20260507170313 66 332 6.1 12.2 0.00 1.99 0.31 66 1014.4
20260507170220 66 340 6.1 12.2 0.00 1.99 0.31 66 1014.4
20260507170126 65 329 6.1 12.2 0.00 1.99 0.31 66 1014.4
20260507170013 65 5 7.8 13.9 0.00 1.99 0.31 64 1014.4
20260507165919 65 24 7.8 13.9 0.00 1.99 0.31 61 1014.5
20260507165811 66 338 7.8 13.9 0.00 1.99 0.31 61 1014.5
20260507165718 66 344 7.8 13.9 0.00 1.99 0.31 62 1014.6
20260507165627 66 345 8.7 13.9 0.00 1.99 0.31 64 1014.6
20260507165515 66 325 7.8 13.9 0.00 1.99 0.31 64 1014.7
20260507165421 66 341 8.7 13.9 0.00 1.99 0.31 65 1014.7
20260507165348 66 323 8.7 13.9 0.00 1.99 0.31 64 1014.7
20260507165218 66 360 8.7 13.9 0.00 1.99 0.31 64 1014.6
20260507165125 65 336 7.8 13.0 0.00 1.99 0.31 64 1014.6
20260507165055 65 323 7.8 11.3 0.00 1.99 0.31 64 1014.6
20260507164848 65 9 7.0 11.3 0.00 1.99 0.31 64 1014.6
20260507164715 65 342 5.2 11.3 0.00 1.99 0.31 66 1014.6
20260507164626 65 336 3.5 11.3 0.00 1.99 0.31 65 1014.6
20260507164535 65 25 4.3 11.3 0.00 1.99 0.31 65 1014.6
20260507164420 65 5 7.0 12.2 0.00 1.99 0.31 63 1014.7
20260507164326 65 5 7.8 12.2 0.00 1.99 0.31 65 1014.7
20260507164234 65 355 7.0 12.2 0.00 1.99 0.31 66 1014.8
20260507164121 65 5 6.1 13.0 0.00 1.99 0.31 65 1014.8
20260507164011 65 346 6.1 13.9 0.00 1.99 0.31 64 1014.7
20260507163919 65 355 7.0 13.9 0.00 1.99 0.31 65 1014.7
20260507163846 65 325 7.8 13.9 0.00 1.99 0.31 65 1014.7
20260507163733 65 5 7.8 13.9 0.00 1.99 0.31 65 1014.7
20260507163641 65 38 7.8 13.9 0.00 1.99 0.31 65 1014.8
20260507163551 65 17 8.7 13.9 0.00 1.99 0.31 65 1014.8
20260507163350 65 331 9.6 13.9 0.00 1.99 0.31 63 1014.8
20260507163218 65 306 8.7 13.9 0.00 1.99 0.31 66 1014.8
20260507163124 65 320 7.0 11.3 0.00 1.99 0.31 67 1014.8
20260507163012 65 5 5.2 13.0 0.00 1.99 0.31 66 1014.8
20260507162940 65 22 5.2 13.0 0.00 1.99 0.31 67 1014.8
20260507162827 65 27 5.2 13.0 0.00 1.99 0.31 66 1014.8
20260507162719 65 31 6.1 13.0 0.00 1.99 0.31 67 1014.9
20260507162627 65 12 6.1 13.0 0.00 1.99 0.31 67 1014.9
20260507162515 64 355 8.7 13.0 0.00 1.99 0.31 67 1014.8
20260507162422 64 329 7.8 13.0 0.00 1.99 0.31 66 1014.8
20260507162329 64 360 7.8 13.0 0.00 1.99 0.31 65 1014.8
20260507162220 64 351 7.8 13.0 0.00 1.99 0.31 65 1014.8
20260507162147 64 351 7.8 13.0 0.00 1.99 0.31 65 1014.8
20260507162118 64 351 7.8 13.0 0.00 1.99 0.31 65 1014.7
20260507161810 64 344 7.8 13.0 0.00 1.99 0.31 66 1014.5
20260507161738 64 14 7.8 13.0 0.00 1.99 0.31 66 1014.5
20260507161625 64 22 8.7 13.0 0.00 1.99 0.31 65 1014.5
20260507161536 64 70 7.8 13.0 0.00 1.99 0.31 67 1014.5
20260507161422 64 5 7.8 13.0 0.00 1.99 0.31 67 1014.5
20260507161330 64 33 8.7 13.0 0.00 1.99 0.31 67 1014.6
20260507161218 64 32 8.7 13.0 0.00 1.99 0.31 68 1014.6
20260507161126 64 360 7.0 13.0 0.00 1.99 0.31 68 1014.6
20260507161018 64 335 3.5 9.6 0.00 1.99 0.31 69 1014.5
20260507160927 64 13 4.3 9.6 0.00 1.99 0.31 69 1014.5
20260507160815 64 5 5.2 12.2 0.00 1.99 0.31 68 1014.5
20260507160723 64 24 6.1 12.2 0.00 1.99 0.31 68 1014.5
20260507160630 64 30 7.0 12.2 0.00 1.99 0.31 69 1014.5
20260507160545 64 27 6.1 12.2 0.00 1.99 0.31 68 1014.6
20260507160319 63 34 7.0 12.2 0.00 1.99 0.31 69 1014.5
20260507160226 63 360 7.8 12.2 0.00 1.99 0.31 69 1014.5
20260507160113 63 21 7.0 13.0 0.00 1.99 0.31 70 1014.7
20260507160021 63 336 7.0 13.0 0.00 1.99 0.31 70 1014.7
20260507155927 63 11 7.8 13.0 0.00 1.99 0.31 69 1014.7
20260507155818 63 355 8.7 13.0 0.00 1.99 0.31 70 1014.6
20260507155726 63 5 7.0 13.9 0.00 1.99 0.31 71 1014.6
20260507155613 63 325 6.1 13.9 0.00 1.99 0.31 70 1014.6
20260507155521 63 16 7.0 13.9 0.00 1.99 0.31 70 1014.6
20260507155449 63 11 7.8 13.9 0.00 1.99 0.31 70 1014.5
20260507155319 62 32 7.8 13.9 0.00 1.99 0.31 70 1014.5
20260507155227 62 40 7.8 13.9 0.00 1.99 0.31 70 1014.5
20260507155154 62 19 7.8 13.9 0.00 1.99 0.31 70 1014.4
20260507155125 62 69 8.7 13.9 0.00 1.99 0.31 71 1014.5
20260507154818 62 20 8.7 13.0 0.00 1.99 0.31 71 1014.4
20260507154745 62 5 8.7 13.0 0.00 1.99 0.31 72 1014.4
20260507154616 62 31 8.7 13.9 0.00 1.99 0.31 73 1014.4
20260507154544 62 5 7.8 13.9 0.00 1.99 0.31 74 1014.4
20260507154430 62 18 7.8 13.9 0.00 1.99 0.31 72 1014.5
20260507154318 61 11 8.7 13.9 0.00 1.99 0.31 71 1014.4
20260507154225 61 360 8.7 13.9 0.00 1.99 0.31 71 1014.4
20260507154117 61 360 9.6 13.9 0.00 1.99 0.31 72 1014.5
20260507154025 61 344 10.4 13.9 0.00 1.99 0.31 71 1014.5
20260507153912 61 26 9.6 13.9 0.00 1.99 0.31 72 1014.5
20260507153821 61 349 7.8 13.9 0.00 1.99 0.31 73 1014.5
20260507153729 61 349 7.8 13.9 0.00 1.99 0.31 74 1014.5
20260507153615 61 351 7.0 12.2 0.00 1.99 0.31 74 1014.4
20260507153550 61 5 7.0 13.0 0.00 1.99 0.31 74 1014.4
20260507153323 61 333 7.8 13.0 0.00 1.99 0.31 75 1014.5
20260507153230 61 360 7.8 13.0 0.00 1.99 0.31 75 1014.4
20260507153118 61 355 7.0 13.0 0.00 1.99 0.31 74 1014.5
20260507153029 61 5 7.0 13.0 0.00 1.99 0.31 74 1014.5
20260507152918 61 5 7.0 13.0 0.00 1.99 0.31 74 1014.5
20260507152826 61 355 7.0 13.0 0.00 1.99 0.31 74 1014.5
20260507152713 61 17 7.8 13.0 0.00 1.99 0.31 74 1014.4
20260507152621 61 360 7.0 13.0 0.00 1.99 0.31 74 1014.4
20260507152513 61 20 7.0 11.3 0.00 1.99 0.31 74 1014.5
20260507152420 61 13 7.8 11.3 0.00 1.99 0.31 75 1014.5
20260507152349 61 360 7.0 10.4 0.00 1.99 0.31 75 1014.5
20260507152216 60 25 6.1 10.4 0.00 1.99 0.31 75 1014.5
20260507152122 60 18 7.0 10.4 0.00 1.99 0.31 77 1014.5
20260507152058 60 30 7.0 9.6 0.00 1.99 0.31 77 1014.5
20260507151811 60 38 6.1 11.3 0.00 1.99 0.31 77 1014.5
20260507151718 60 5 5.2 11.3 0.00 1.99 0.31 78 1014.4
20260507151625 60 347 5.2 11.3 0.00 1.99 0.31 77 1014.4
20260507151513 60 35 4.3 11.3 0.00 1.99 0.31 78 1014.5
20260507151419 60 355 5.2 11.3 0.00 1.99 0.31 77 1014.5
20260507151329 59 331 5.2 11.3 0.00 1.99 0.31 76 1014.5
20260507151217 59 23 6.1 11.3 0.00 1.99 0.31 77 1014.5
20260507151145 59 355 7.0 11.3 0.00 1.99 0.31 77 1014.5
20260507151031 59 5 8.7 11.3 0.00 1.99 0.31 77 1014.4
20260507150919 59 344 7.8 11.3 0.00 1.99 0.31 77 1014.4
20260507150827 59 5 7.0 10.4 0.00 1.99 0.31 78 1014.4
20260507150719 59 355 6.1 10.4 0.00 1.99 0.31 78 1014.4
20260507150646 59 17 5.2 10.4 0.00 1.99 0.31 78 1014.4
20260507150617 59 346 6.1 10.4 0.00 1.99 0.31 78 1014.4
20260507150310 59 339 6.1 10.4 0.00 1.99 0.31 78 1014.2
20260507150218 59 323 6.1 10.4 0.00 1.99 0.31 79 1014.3
20260507150130 59 350 7.0 11.3 0.00 1.99 0.31 79 1014.3
20260507150017 59 336 5.2 11.3 0.00 1.99 0.31 81 1014.3
20260507145924 59 13 5.2 11.3 0.00 1.99 0.31 81 1014.3
20260507145812 59 342 5.2 11.3 0.00 1.99 0.31 81 1014.3
20260507145721 59 360 4.3 11.3 0.00 1.99 0.31 82 1014.3
20260507145614 58 355 4.3 11.3 0.00 1.99 0.31 82 1014.3
20260507145521 58 22 6.1 11.3 0.00 1.99 0.31 81 1014.3
20260507145428 58 13 7.0 11.3 0.00 1.99 0.31 81 1014.3
20260507145317 58 355 7.0 11.3 0.00 1.99 0.31 82 1014.2
20260507145225 58 360 6.1 11.3 0.00 1.99 0.31 82 1014.2
20260507145116 58 32 5.2 10.4 0.00 1.99 0.31 82 1014.3
20260507145048 58 360 6.1 10.4 0.00 1.99 0.31 82 1014.3
20260507144823 58 355 7.0 10.4 0.00 1.99 0.31 82 1014.3
20260507144730 58 5 7.0 12.2 0.00 1.99 0.31 83 1014.3
20260507144617 58 338 7.0 12.2 0.00 1.99 0.31 84 1014.4
20260507144549 58 355 7.0 12.2 0.00 1.99 0.31 83 1014.4
20260507144413 58 11 7.0 12.2 0.00 1.99 0.31 83 1014.4
20260507144321 57 323 6.1 12.2 0.00 1.99 0.31 83 1014.4
20260507144228 57 9 7.8 12.2 0.00 1.99 0.31 83 1014.5
20260507144135 57 334 7.8 12.2 0.00 1.99 0.31 83 1014.4
20260507144021 57 5 7.8 12.2 0.00 1.99 0.31 83 1014.4
20260507143912 57 355 7.8 12.2 0.00 1.99 0.31 84 1014.5
20260507143840 57 323 6.1 11.3 0.00 1.99 0.31 84 1014.5
20260507143728 57 5 5.2 9.6 0.00 1.99 0.31 85 1014.5
20260507143614 57 355 5.2 12.2 0.00 1.99 0.31 85 1014.4
20260507143545 57 340 5.2 12.2 0.00 1.99 0.31 85 1014.4
20260507143323 57 355 6.1 12.2 0.00 1.99 0.31 85 1014.4
20260507143230 57 340 6.1 12.2 0.00 1.99 0.31 85 1014.3
20260507143115 57 317 5.2 12.2 0.00 1.99 0.31 85 1014.3
20260507143023 57 339 5.2 12.2 0.00 1.99 0.31 85 1014.3
20260507142930 57 360 6.1 13.0 0.00 1.99 0.31 85 1014.4
20260507142819 57 360 5.2 13.0 0.00 1.99 0.31 85 1014.4
20260507142711 57 345 4.3 13.0 0.00 1.99 0.31 85 1014.3
20260507142619 57 355 5.2 13.0 0.00 1.99 0.31 85 1014.2
20260507142546 56 12 6.1 13.0 0.00 1.99 0.31 85 1014.2
20260507142413 56 348 7.8 13.0 0.00 1.99 0.31 85 1014.3
20260507142321 56 308 7.8 13.0 0.00 1.99 0.31 85 1014.3
20260507142213 56 348 8.7 13.0 0.00 1.99 0.31 85 1014.3
20260507142141 56 5 8.7 13.0 0.00 1.99 0.31 85 1014.2
20260507142049 56 360 8.7 13.0 0.00 1.99 0.31 85 1014.2
20260507141823 56 346 8.7 13.0 0.00 1.99 0.31 85 1014.2
20260507141730 56 360 8.7 13.0 0.00 1.99 0.31 86 1014.1
20260507141623 56 355 8.7 13.0 0.00 1.99 0.31 86 1014.2
20260507141529 56 53 7.8 11.3 0.00 1.99 0.31 86 1014.1
20260507141417 56 5 6.1 11.3 0.00 1.99 0.31 86 1014.1
20260507141343 56 15 6.1 11.3 0.00 1.99 0.31 86 1014.1
20260507141230 56 24 5.2 12.2 0.00 1.99 0.31 86 1014.1
20260507141138 56 16 5.2 12.2 0.00 1.99 0.31 87 1014.1
20260507141025 56 35 6.1 12.2 0.00 1.99 0.31 86 1014.1
20260507140916 56 360 7.0 12.2 0.00 1.99 0.31 86 1014.1
20260507140823 56 319 7.0 12.2 0.00 1.99 0.31 86 1014.1
20260507140751 56 338 7.0 12.2 0.00 1.99 0.31 86 1014.0
20260507140638 56 325 7.0 12.2 0.00 1.99 0.31 87 1014.0
20260507140609 56 16 9.6 12.2 0.00 1.99 0.31 86 1014.0
20260507140325 56 334 8.7 12.2 0.00 1.99 0.31 87 1014.0
20260507140214 56 342 7.0 12.2 0.00 1.99 0.31 87 1013.9
20260507140121 56 338 7.0 12.2 0.00 1.99 0.31 87 1013.9
20260507140029 56 330 7.0 12.2 0.00 1.99 0.31 87 1013.9
20260507135918 56 329 7.0 12.2 0.00 1.99 0.31 87 1013.9
20260507135830 56 341 7.0 12.2 0.00 1.99 0.31 87 1013.9
20260507135737 56 332 7.8 12.2 0.00 1.99 0.31 87 1013.8
20260507135623 56 333 8.7 12.2 0.00 1.99 0.31 87 1013.8
20260507135511 56 11 7.8 12.2 0.00 1.99 0.31 88 1013.8
20260507135418 56 17 7.0 10.4 0.00 1.99 0.31 88 1013.8
20260507135324 56 351 7.0 10.4 0.00 1.99 0.31 88 1013.8
20260507135216 56 346 5.2 10.4 0.00 1.99 0.31 88 1013.8
20260507135121 56 5 4.3 10.4 0.00 1.99 0.31 88 1013.8
20260507135052 56 17 5.2 10.4 0.00 1.99 0.31 88 1013.8
20260507134846 56 9 6.1 10.4 0.00 1.99 0.31 88 1013.8
20260507134712 56 337 5.2 8.7 0.00 1.99 0.31 88 1013.8
20260507134624 56 331 5.2 8.7 0.00 1.99 0.31 88 1013.8
20260507134510 56 5 5.2 8.7 0.00 1.99 0.31 89 1013.8
20260507134419 56 351 6.1 9.6 0.00 2.62 0.31 89 1013.8
20260507134328 56 355 4.3 9.6 0.00 2.62 0.31 89 1013.8
20260507134215 56 17 4.3 10.4 0.00 2.62 0.31 89 1013.8
20260507134127 55 318 5.2 10.4 0.00 2.62 0.31 89 1013.8
20260507134015 55 5 6.1 12.2 0.00 2.62 0.31 89 1013.8
20260507133920 55 346 6.1 12.2 0.00 2.62 0.31 89 1013.8
20260507133847 55 16 6.1 12.2 0.00 2.62 0.31 89 1013.7
20260507133712 55 333 6.1 12.2 0.00 2.62 0.31 89 1013.8
20260507133640 55 323 5.2 12.2 0.00 2.62 0.31 89 1013.8
20260507133614 55 336 6.1 12.2 0.00 2.62 0.31 89 1013.7
20260507133327 55 355 7.0 12.2 0.00 2.62 0.31 89 1013.7
20260507133215 55 334 6.1 12.2 0.00 2.62 0.31 89 1013.6
20260507133122 55 313 5.2 12.2 0.00 2.62 0.31 89 1013.6
20260507133049 55 347 5.2 10.4 0.00 2.62 0.31 89 1013.5
20260507132921 55 24 6.1 10.4 0.00 2.62 0.31 90 1013.5
20260507132828 55 355 7.0 10.4 0.00 2.62 0.31 90 1013.5
20260507132736 55 344 7.8 10.4 0.00 2.62 0.31 90 1013.5
20260507132622 55 306 7.0 10.4 0.00 2.62 0.31 90 1013.5
20260507132528 55 349 6.1 10.4 0.00 2.62 0.31 90 1013.4
20260507132415 55 355 7.0 10.4 0.00 2.62 0.31 90 1013.4
20260507132343 55 347 7.8 10.4 0.00 2.62 0.31 90 1013.4
20260507132212 55 5 7.0 10.4 0.00 2.62 0.31 91 1013.4
20260507132140 55 12 7.0 10.4 0.00 2.62 0.31 91 1013.4
20260507132111 55 355 6.1 10.4 0.00 2.62 0.31 91 1013.3
20260507131845 55 343 5.2 9.6 0.00 2.62 0.31 91 1013.3
20260507131731 55 348 5.2 9.6 0.00 2.62 0.31 91 1013.3
20260507131623 55 360 6.1 9.6 0.00 2.62 0.31 91 1013.3
20260507131550 55 325 7.0 9.6 0.00 2.62 0.31 91 1013.3
20260507131437 55 324 7.0 9.6 0.00 2.62 0.31 92 1013.3
20260507131323 55 348 6.1 9.6 0.00 2.62 0.31 92 1013.3
20260507131228 55 342 6.1 9.6 0.00 2.62 0.31 92 1013.3
20260507131116 55 355 6.1 9.6 0.00 2.62 0.31 92 1013.3
20260507131024 55 342 7.0 9.6 0.00 2.62 0.31 92 1013.3
20260507130935 55 349 7.0 9.6 0.00 2.62 0.31 92 1013.3
20260507130822 55 340 6.1 9.6 0.00 2.62 0.31 92 1013.3
20260507130750 55 360 5.2 8.7 0.00 2.62 0.31 92 1013.3
20260507130637 55 355 4.3 7.8 0.00 2.62 0.31 93 1013.3
20260507130607 55 355 4.3 7.8 0.00 2.62 0.31 93 1013.3
20260507130324 55 335 4.3 7.8 0.00 2.62 0.31 93 1013.3
20260507130232 55 19 5.2 7.8 0.00 2.62 0.31 93 1013.3
20260507130118 55 5 5.2 8.7 0.00 2.62 0.31 93 1013.2
20260507130025 55 5 5.2 8.7 0.00 2.62 0.31 93 1013.2
20260507125913 55 9 5.2 8.7 0.00 2.62 0.31 93 1013.1
20260507125821 55 26 5.2 8.7 0.00 2.62 0.31 93 1013.1
20260507125712 54 360 5.2 8.7 0.00 2.62 0.31 93 1013.3
20260507125620 54 23 4.3 8.7 0.00 2.62 0.31 93 1013.3
20260507125528 54 355 3.5 8.7 0.00 2.62 0.31 93 1013.3
20260507125415 54 346 5.2 8.7 0.00 2.62 0.31 93 1013.3
20260507125322 54 332 5.2 8.7 0.00 2.62 0.31 94 1013.3
20260507125213 54 325 5.2 7.8 0.00 2.62 0.31 93 1013.3
20260507125140 54 355 5.2 7.8 0.00 2.62 0.31 93 1013.3
20260507125110 54 355 5.2 7.8 0.00 2.62 0.31 93 1013.2
20260507124824 54 14 4.3 7.8 0.00 2.62 0.31 94 1013.3
20260507124751 54 35 4.3 7.8 0.00 2.62 0.31 94 1013.3
20260507124617 54 355 5.2 8.7 0.00 2.62 0.31 94 1013.2
20260507124548 54 9 5.2 8.7 0.00 2.62 0.31 94 1013.2
20260507124416 54 5 5.2 8.7 0.00 2.62 0.31 94 1013.2
20260507124323 54 355 4.3 8.7 0.00 2.62 0.31 94 1013.2
20260507124230 54 5 4.3 8.7 0.00 2.62 0.31 94 1013.3
20260507124137 54 5 4.3 8.7 0.00 2.62 0.31 94 1013.3
20260507124023 54 5 5.2 8.7 0.00 2.62 0.31 94 1013.3
20260507123914 54 344 5.2 8.7 0.00 2.62 0.31 95 1013.2
20260507123842 54 332 5.2 8.7 0.00 2.62 0.31 95 1013.2
20260507123729 54 35 4.3 8.7 0.00 2.62 0.31 95 1013.2
20260507123618 54 347 5.2 9.6 0.00 2.62 0.31 95 1013.2
20260507123547 54 348 5.2 9.6 0.00 2.62 0.31 95 1013.2
20260507123325 54 5 6.1 9.6 0.00 2.62 0.31 95 1013.1
20260507123211 54 355 5.2 9.6 0.00 2.62 0.31 95 1013.1
20260507123119 54 348 5.2 11.3 0.00 2.62 0.31 95 1013.1
20260507123026 54 340 4.3 11.3 0.00 2.62 0.31 95 1013.1
20260507122933 54 347 6.1 11.3 0.00 2.62 0.31 95 1013.0
20260507122819 54 360 6.1 11.3 0.00 2.62 0.31 95 1013.0
20260507122711 54 18 6.1 11.3 0.00 2.62 0.31 95 1013.0
20260507122618 54 355 6.1 11.3 0.00 2.62 0.31 95 1013.0
20260507122526 54 26 5.2 11.3 0.00 2.62 0.31 95 1013.0
20260507122412 54 348 7.0 11.3 0.00 2.62 0.31 95 1013.0
20260507122340 54 14 7.0 11.3 0.00 2.62 0.31 95 1013.0
20260507122210 54 355 6.1 11.3 0.00 2.62 0.31 95 1012.9
20260507122118 54 355 4.3 9.6 0.00 2.62 0.31 95 1012.9
20260507122050 54 360 4.3 8.7 0.00 2.62 0.31 95 1012.9
20260507121824 54 355 5.2 8.7 0.00 2.62 0.31 95 1013.0
20260507121711 54 349 5.2 8.7 0.00 2.62 0.31 95 1013.0
20260507121643 54 9 5.2 8.7 0.00 2.62 0.31 95 1013.0
20260507121549 54 345 5.2 9.6 0.00 2.62 0.31 95 1013.0
20260507121435 54 349 5.2 9.6 0.00 2.62 0.31 96 1013.1
20260507121342 54 69 5.2 9.6 0.00 2.62 0.31 96 1013.1
20260507121229 54 341 4.3 9.6 0.00 2.62 0.31 96 1013.1
20260507121116 54 344 3.5 9.6 0.00 2.62 0.31 96 1013.0
20260507121024 54 355 4.3 9.6 0.00 2.62 0.31 96 1013.0
20260507120915 54 14 4.3 9.6 0.00 2.62 0.31 96 1013.1
20260507120823 54 329 5.2 9.6 0.00 2.62 0.31 96 1013.1
20260507120711 54 327 4.3 9.6 0.00 2.62 0.31 96 1013.0
20260507120618 54 15 4.3 8.7 0.00 2.62 0.31 96 1013.0
20260507120552 54 355 4.3 9.6 0.00 2.62 0.31 96 1013.0
20260507120327 54 5 5.2 9.6 0.00 2.62 0.31 96 1012.8
20260507120215 54 34 3.5 9.6 0.00 2.62 0.31 96 1012.7
20260507120122 54 355 3.5 9.6 0.00 2.62 0.31 96 1012.7
20260507120030 54 5 4.3 9.6 0.00 2.62 0.31 96 1012.6
20260507115918 54 360 6.1 9.6 0.00 2.62 0.31 96 1012.6
20260507115830 54 355 7.0 9.6 0.00 2.62 0.31 96 1012.6
20260507115717 54 21 6.1 9.6 0.00 2.62 0.31 96 1012.7
20260507115624 54 345 5.2 9.6 0.00 2.62 0.31 96 1012.7
20260507115511 54 355 4.3 9.6 0.00 2.62 0.31 96 1012.6
20260507115420 54 344 4.3 9.6 0.00 2.62 0.31 96 1012.6
20260507115311 54 360 5.2 9.6 0.00 2.62 0.31 96 1012.5
20260507115219 54 350 6.1 9.6 0.00 2.62 0.31 96 1012.6
20260507115126 54 344 6.1 9.6 0.00 2.62 0.31 96 1012.6
20260507115054 54 321 5.2 9.6 0.00 2.62 0.31 96 1012.6
20260507114812 54 318 4.3 9.6 0.00 2.62 0.31 96 1012.5
20260507114720 54 355 5.2 9.6 0.00 2.62 0.31 96 1012.5
20260507114627 54 338 6.1 9.6 0.00 2.62 0.31 96 1012.5
20260507114535 54 344 5.2 9.6 0.00 2.62 0.31 96 1012.6
20260507114421 54 355 3.5 9.6 0.00 2.62 0.31 96 1012.6
20260507114327 54 18 3.5 9.6 0.00 2.62 0.31 96 1012.5
20260507114219 54 341 5.2 9.6 0.00 2.62 0.31 96 1012.3
20260507114125 54 334 6.1 9.6 0.00 2.62 0.31 96 1012.3
20260507114012 54 336 7.0 9.6 0.00 2.62 0.31 96 1012.3
20260507113920 54 337 5.2 7.8 0.00 2.62 0.31 96 1012.3
20260507113827 54 5 5.2 7.8 0.00 2.62 0.31 96 1012.4
20260507113714 54 346 5.2 7.8 0.00 2.62 0.31 96 1012.5
20260507113626 54 343 4.3 7.8 0.00 2.62 0.31 96 1012.5
20260507113558 54 9 4.3 7.8 0.00 2.62 0.31 96 1012.4
20260507113312 54 342 4.3 7.8 0.00 2.62 0.31 96 1012.5
20260507113221 54 344 5.2 7.8 0.00 2.62 0.31 96 1012.5
20260507113132 54 16 5.2 7.8 0.00 2.62 0.31 96 1012.4
20260507113019 54 341 4.3 7.8 0.00 2.62 0.31 96 1012.4
20260507112924 54 360 4.3 7.8 0.00 2.62 0.31 96 1012.4
20260507112812 54 345 4.3 7.8 0.00 2.62 0.31 96 1012.4
20260507112740 54 338 3.5 7.8 0.00 2.62 0.31 96 1012.4
20260507112626 54 13 3.5 7.8 0.00 2.62 0.31 96 1012.4
20260507112533 53 338 3.5 7.8 0.00 2.62 0.31 96 1012.6
20260507112423 54 360 4.3 9.6 0.00 2.62 0.31 96 1012.6
20260507112311 54 348 4.3 11.3 0.00 2.62 0.31 96 1012.6
20260507112220 54 5 4.3 11.3 0.00 2.62 0.31 96 1012.6
20260507112128 54 341 4.3 11.3 0.00 2.62 0.31 96 1012.6
20260507112058 54 322 4.3 11.3 0.00 2.62 0.31 96 1012.5
20260507111817 53 360 4.3 11.3 0.00 2.62 0.31 96 1012.1
20260507111745 53 306 5.2 11.3 0.00 2.62 0.31 96 1012.1
20260507111611 54 341 7.0 11.3 0.00 2.62 0.31 96 1011.9
20260507111518 53 355 6.1 11.3 0.00 2.62 0.31 96 1012.0
20260507111446 53 360 4.3 8.7 0.00 2.62 0.31 96 1012.0
20260507111332 54 9 5.2 8.7 0.00 2.62 0.31 96 1012.1
20260507111222 54 348 6.1 8.7 0.00 2.62 0.31 96 1012.1
20260507111129 54 355 6.1 8.7 0.00 2.62 0.31 96 1012.0
20260507111016 54 12 3.5 8.7 0.00 2.62 0.31 96 1012.0
20260507110924 54 355 3.5 8.7 0.00 2.62 0.31 96 1012.0
20260507110811 54 11 5.2 8.7 0.00 2.62 0.31 96 1011.9
20260507110739 54 343 4.3 8.7 0.00 2.62 0.31 96 1011.9
20260507110629 54 360 4.3 8.7 0.00 2.62 0.31 96 1011.9
20260507110600 54 355 4.3 8.7 0.00 2.62 0.31 96 1011.9
20260507110314 54 355 4.3 8.7 0.00 2.62 0.31 96 1012.0
20260507110221 54 348 4.3 8.7 0.00 2.62 0.31 96 1012.0
20260507110112 54 360 5.2 8.7 0.00 2.62 0.31 96 1012.1
20260507110020 54 346 4.3 8.7 0.00 2.62 0.31 96 1012.1
20260507105929 54 333 4.3 8.7 0.00 2.62 0.31 96 1012.1
20260507105816 54 323 3.5 8.7 0.00 2.62 0.31 96 1012.2
20260507105724 53 336 4.3 8.7 0.00 2.62 0.31 96 1012.2
20260507105652 54 5 6.1 8.7 0.00 2.62 0.31 96 1012.2
20260507105522 54 360 6.1 8.7 0.00 2.62 0.31 96 1012.1
20260507105429 54 13 4.3 8.7 0.00 2.62 0.31 96 1012.1
20260507105337 54 323 4.3 8.7 0.00 2.62 0.31 96 1012.2
20260507105223 54 355 5.2 8.7 0.00 2.62 0.31 96 1012.2
20260507105129 54 323 4.3 8.7 0.00 2.62 0.31 96 1012.1
20260507105103 54 332 4.3 8.7 0.00 2.62 0.31 96 1012.1
20260507104838 54 348 2.6 7.8 0.00 2.62 0.31 96 1012.0
20260507104725 54 344 2.6 7.8 0.00 2.62 0.31 96 1012.0
20260507104613 54 9 2.6 7.8 0.00 2.62 0.31 96 1011.8
20260507104521 54 24 2.6 7.8 0.00 2.62 0.31 96 1011.8
20260507104429 54 15 3.5 7.8 0.00 2.62 0.31 96 1011.7
20260507104322 54 9 4.3 7.8 0.00 2.62 0.31 96 1011.7
20260507104228 54 31 4.3 7.8 0.00 2.62 0.31 96 1011.8
20260507104137 54 26 3.5 7.8 0.00 2.62 0.31 96 1011.7
20260507104023 54 18 3.5 7.8 0.00 2.62 0.31 96 1011.7
20260507103930 54 348 3.5 7.8 0.00 2.62 0.31 96 1011.7
20260507103818 54 13 4.3 7.8 0.00 2.62 0.31 96 1011.8
20260507103730 54 34 4.3 9.6 0.00 2.62 0.31 96 1011.8
20260507103638 54 31 3.5 9.6 0.00 2.62 0.31 96 1012.0
20260507103607 54 5 3.5 9.6 0.00 2.62 0.31 96 1012.0
20260507103319 54 355 2.6 9.6 0.00 2.62 0.31 96 1012.1
20260507103226 54 5 3.5 9.6 0.00 2.62 0.31 96 1012.1
20260507103118 54 360 5.2 9.6 0.00 2.62 0.31 96 1012.1
20260507103026 54 5 6.1 9.6 0.00 2.62 0.31 96 1012.1
20260507102934 54 12 6.1 9.6 0.00 2.62 0.31 96 1012.0
20260507102820 54 355 5.2 9.6 0.00 2.62 0.31 96 1012.0
20260507102728 54 5 5.2 9.6 0.00 2.62 0.31 96 1012.0
20260507102620 54 9 4.3 10.4 0.00 2.62 0.31 96 1011.9
20260507102527 54 346 4.3 10.4 0.00 2.62 0.31 96 1011.9
20260507102414 54 5 4.3 10.4 0.00 2.62 0.31 96 1011.9
20260507102322 54 26 4.3 10.4 0.00 2.62 0.31 96 1011.9
20260507102249 54 360 5.2 10.4 0.00 2.62 0.31 96 1011.9
20260507102117 54 355 7.0 10.4 0.00 2.62 0.31 96 1011.9
20260507102052 54 26 6.1 10.4 0.00 2.62 0.31 96 1011.9
20260507101826 54 16 4.3 10.4 0.00 2.62 0.31 96 1011.8
20260507101714 54 24 2.6 11.3 0.00 2.62 0.31 96 1011.7
20260507101622 54 355 3.5 11.3 0.00 2.62 0.31 96 1011.7
20260507101513 54 22 5.2 11.3 0.00 2.62 0.31 96 1011.8
20260507101421 54 35 5.2 11.3 0.00 2.62 0.31 96 1011.8
20260507101329 54 5 6.1 11.3 0.00 2.62 0.31 96 1011.8
20260507101236 54 355 5.2 11.3 0.00 2.62 0.31 96 1011.8
20260507101122 54 355 6.1 11.3 0.00 2.62 0.31 96 1011.8
20260507101050 54 349 6.1 11.3 0.00 2.62 0.31 96 1011.7
20260507100918 54 15 6.1 11.3 0.00 2.62 0.31 96 1011.6
20260507100829 54 340 5.2 11.3 0.00 2.62 0.31 96 1011.6
20260507100716 54 5 6.1 11.3 0.00 2.62 0.31 96 1011.5
20260507100643 54 25 7.0 11.3 0.00 2.62 0.31 96 1011.5
20260507100552 54 332 6.1 11.3 0.00 2.62 0.31 96 1011.5
20260507100311 54 57 6.1 11.3 0.00 2.62 0.31 96 1011.5
20260507100219 54 360 5.2 10.4 0.00 2.62 0.31 96 1011.5
20260507100148 54 15 4.3 9.6 0.00 2.62 0.31 96 1011.5
20260507100014 54 5 5.2 9.6 0.00 2.62 0.31 96 1011.2
20260507095921 54 331 5.2 9.6 0.00 2.62 0.31 96 1011.2
20260507095829 54 355 5.2 9.6 0.00 2.62 0.31 96 1011.2
20260507095720 54 5 5.2 9.6 0.00 2.62 0.31 96 1011.2
20260507095626 54 10 5.2 9.6 0.00 2.62 0.31 96 1011.3
20260507095534 54 5 5.2 9.6 0.00 2.62 0.31 96 1011.5
20260507095442 54 349 4.3 8.7 0.00 2.62 0.31 96 1011.5
20260507095328 54 20 4.3 8.7 0.00 2.62 0.31 96 1011.5
20260507095215 54 26 4.3 8.7 0.00 2.62 0.31 96 1011.6
20260507095142 54 53 4.3 8.7 0.00 2.62 0.31 96 1011.6
20260507095056 54 22 4.3 8.7 0.01 2.62 0.31 96 1011.6